Wetterdaten: Donnerstag, 04.02.2016
Datum Zeit Temp. Aussen Temp. o. S. +5cm Feuchte Auss BlattFeu 1 Luftdruck Regen Sonnenschein Regendauer Solar Windben Empfang
04.02.2016 00:00 3,8 C 3,9 C 2,8 C 93 % 0 lf 1024,0 hPa 0,0 l/m 0 min 0 min 0 W/m 10,5 km/h (2 Bft) 91,49 %
04.02.2016 00:02 3,8 C 3,9 C 2,8 C 93 % 0 lf 1024,0 hPa 0,0 l/m 0 min 0 min 0 W/m 18,8 km/h (3 Bft) 94,59 %
04.02.2016 00:06 3,8 C 3,9 C 2,8 C 93 % 0 lf 1024,0 hPa 0,0 l/m 0 min 0 min 0 W/m 20,9 km/h (4 Bft) 95,79 %
04.02.2016 00:08 3,8 C 3,9 C 2,8 C 93 % 0 lf 1024,0 hPa 0,0 l/m 0 min 0 min 0 W/m 23,0 km/h (4 Bft) 95,74 %
04.02.2016 00:10 3,8 C 3,9 C 2,8 C 93 % 0 lf 1024,0 hPa 0,0 l/m 0 min 0 min 0 W/m 27,2 km/h (4 Bft) 91,49 %
04.02.2016 00:12 3,9 C 3,9 C 2,8 C 93 % 0 lf 1024,0 hPa 0,0 l/m 0 min 0 min 0 W/m 14,6 km/h (3 Bft) 95,74 %
04.02.2016 00:14 3,9 C 3,9 C 2,8 C 93 % 0 lf 1024,1 hPa 0,0 l/m 0 min 0 min 0 W/m 23,0 km/h (4 Bft) 91,30 %
04.02.2016 00:16 3,9 C 3,9 C 2,8 C 93 % 0 lf 1024,1 hPa 0,0 l/m 0 min 0 min 0 W/m 16,7 km/h (3 Bft) 91,49 %
04.02.2016 00:18 3,9 C 3,9 C 2,8 C 93 % 0 lf 1024,1 hPa 0,0 l/m 0 min 0 min 0 W/m 14,6 km/h (3 Bft) 87,23 %
04.02.2016 00:20 3,9 C 3,9 C 2,8 C 93 % 0 lf 1024,2 hPa 0,0 l/m 0 min 0 min 0 W/m 18,8 km/h (3 Bft) 93,62 %
04.02.2016 00:22 3,9 C 3,9 C 2,8 C 93 % 0 lf 1024,1 hPa 0,0 l/m 0 min 0 min 0 W/m 18,8 km/h (3 Bft) 95,74 %
04.02.2016 00:24 3,9 C 3,9 C 2,8 C 93 % 0 lf 1024,1 hPa 0,0 l/m 0 min 0 min 0 W/m 23,0 km/h (4 Bft) 95,74 %
04.02.2016 00:26 3,9 C 3,9 C 2,8 C 93 % 0 lf 1024,2 hPa 0,0 l/m 0 min 0 min 0 W/m 18,8 km/h (3 Bft) 97,83 %
04.02.2016 00:28 3,9 C 3,9 C 2,8 C 93 % 0 lf 1024,2 hPa 0,0 l/m 0 min 0 min 0 W/m 16,7 km/h (3 Bft) 95,74 %
04.02.2016 00:30 3,9 C 3,9 C 2,8 C 93 % 0 lf 1024,2 hPa 0,0 l/m 0 min 0 min 0 W/m 20,9 km/h (4 Bft) 97,87 %
04.02.2016 00:32 3,9 C 3,9 C 2,8 C 93 % 0 lf 1024,1 hPa 0,0 l/m 0 min 0 min 0 W/m 16,7 km/h (3 Bft) 95,74 %
04.02.2016 00:34 3,9 C 3,9 C 2,8 C 93 % 0 lf 1024,1 hPa 0,0 l/m 0 min 0 min 0 W/m 14,6 km/h (3 Bft) 95,74 %
04.02.2016 00:36 3,9 C 3,9 C 2,8 C 93 % 0 lf 1024,1 hPa 0,0 l/m 0 min 0 min 0 W/m 16,7 km/h (3 Bft) 97,87 %
04.02.2016 00:38 3,9 C 3,9 C 2,8 C 93 % 0 lf 1024,1 hPa 0,0 l/m 0 min 0 min 0 W/m 18,8 km/h (3 Bft) 97,83 %
04.02.2016 00:40 3,9 C 3,9 C 2,8 C 93 % 0 lf 1024,1 hPa 0,0 l/m 0 min 0 min 0 W/m 12,6 km/h (3 Bft) 95,74 %
04.02.2016 00:42 3,8 C 3,9 C 2,2 C 93 % 0 lf 1024,0 hPa 0,0 l/m 0 min 0 min 0 W/m 14,6 km/h (3 Bft) 95,74 %
04.02.2016 00:44 3,8 C 3,9 C 2,2 C 93 % 0 lf 1024,0 hPa 0,0 l/m 0 min 0 min 0 W/m 18,8 km/h (3 Bft) 97,87 %
04.02.2016 00:46 3,8 C 3,9 C 2,2 C 93 % 0 lf 1024,0 hPa 0,0 l/m 0 min 0 min 0 W/m 20,9 km/h (4 Bft) 97,87 %
04.02.2016 00:48 3,8 C 3,9 C 2,2 C 93 % 0 lf 1024,0 hPa 0,0 l/m 0 min 0 min 0 W/m 16,7 km/h (3 Bft) 97,83 %
04.02.2016 00:50 3,8 C 3,3 C 2,2 C 93 % 0 lf 1024,0 hPa 0,0 l/m 0 min 0 min 0 W/m 18,8 km/h (3 Bft) 97,87 %
04.02.2016 00:52 3,8 C 3,3 C 2,2 C 93 % 0 lf 1023,9 hPa 0,0 l/m 0 min 0 min 0 W/m 16,7 km/h (3 Bft) 95,74 %
04.02.2016 00:54 3,7 C 3,3 C 2,2 C 93 % 0 lf 1023,8 hPa 0,0 l/m 0 min 0 min 0 W/m 18,8 km/h (3 Bft) 95,74 %
04.02.2016 00:56 3,7 C 3,3 C 2,2 C 93 % 0 lf 1023,8 hPa 0,0 l/m 0 min 0 min 0 W/m 20,9 km/h (4 Bft) 100,00 %
04.02.2016 00:58 3,7 C 3,9 C 2,2 C 93 % 0 lf 1023,7 hPa 0,0 l/m 0 min 0 min 0 W/m 20,9 km/h (4 Bft) 100,00 %
04.02.2016 01:00 3,7 C 3,9 C 2,2 C 93 % 0 lf 1023,7 hPa 0,0 l/m 0 min 0 min 0 W/m 20,9 km/h (4 Bft) 100,00 %
04.02.2016 01:02 3,7 C 3,9 C 2,2 C 93 % 0 lf 1023,6 hPa 0,0 l/m 0 min 0 min 0 W/m 16,7 km/h (3 Bft) 97,87 %
04.02.2016 01:04 3,7 C 3,9 C 2,2 C 93 % 0 lf 1023,7 hPa 0,0 l/m 0 min 0 min 0 W/m 16,7 km/h (3 Bft) 97,87 %
04.02.2016 01:06 3,7 C 3,9 C 2,2 C 93 % 0 lf 1023,7 hPa 0,0 l/m 0 min 0 min 0 W/m 12,6 km/h (3 Bft) 97,87 %
04.02.2016 01:08 3,7 C 3,3 C 2,2 C 93 % 0 lf 1023,7 hPa 0,0 l/m 0 min 0 min 0 W/m 20,9 km/h (4 Bft) 95,74 %
04.02.2016 01:10 3,7 C 3,3 C 2,2 C 93 % 0 lf 1023,7 hPa 0,0 l/m 0 min 0 min 0 W/m 18,8 km/h (3 Bft) 93,62 %
04.02.2016 01:12 3,7 C 3,3 C 2,2 C 93 % 0 lf 1023,7 hPa 0,0 l/m 0 min 0 min 0 W/m 18,8 km/h (3 Bft) 95,65 %
04.02.2016 01:14 3,7 C 3,3 C 2,2 C 93 % 0 lf 1023,8 hPa 0,0 l/m 0 min 0 min 0 W/m 14,6 km/h (3 Bft) 93,62 %
04.02.2016 01:16 3,6 C 3,3 C 2,2 C 93 % 0 lf 1023,8 hPa 0,0 l/m 0 min 0 min 0 W/m 14,6 km/h (3 Bft) 97,87 %
04.02.2016 01:18 3,6 C 3,3 C 2,2 C 93 % 0 lf 1023,8 hPa 0,0 l/m 0 min 0 min 0 W/m 23,0 km/h (4 Bft) 97,87 %
04.02.2016 01:20 3,6 C 3,3 C 2,2 C 93 % 0 lf 1023,9 hPa 0,0 l/m 0 min 0 min 0 W/m 12,6 km/h (3 Bft) 95,74 %
04.02.2016 01:22 3,6 C 3,3 C 2,2 C 93 % 0 lf 1023,9 hPa 0,0 l/m 0 min 0 min 0 W/m 16,7 km/h (3 Bft) 93,62 %
04.02.2016 01:24 3,6 C 3,9 C 2,2 C 93 % 0 lf 1024,0 hPa 0,0 l/m 0 min 0 min 0 W/m 18,8 km/h (3 Bft) 95,65 %
04.02.2016 01:26 3,6 C 3,9 C 2,2 C 93 % 0 lf 1023,9 hPa 0,0 l/m 0 min 0 min 0 W/m 16,7 km/h (3 Bft) 93,62 %
04.02.2016 01:28 3,6 C 3,3 C 2,2 C 93 % 0 lf 1023,9 hPa 0,0 l/m 0 min 0 min 0 W/m 16,7 km/h (3 Bft) 91,49 %
04.02.2016 01:30 3,6 C 3,3 C 2,2 C 93 % 0 lf 1024,0 hPa 0,0 l/m 0 min 0 min 0 W/m 18,8 km/h (3 Bft) 97,87 %
04.02.2016 01:32 3,6 C 3,3 C 2,2 C 93 % 0 lf 1024,0 hPa 0,0 l/m 0 min 0 min 0 W/m 14,6 km/h (3 Bft) 93,62 %
04.02.2016 01:34 3,6 C 3,3 C 2,2 C 93 % 0 lf 1024,0 hPa 0,0 l/m 0 min 0 min 0 W/m 16,7 km/h (3 Bft) 97,87 %
04.02.2016 01:36 3,5 C 3,3 C 2,2 C 93 % 0 lf 1024,0 hPa 0,0 l/m 0 min 0 min 0 W/m 18,8 km/h (3 Bft) 95,65 %
04.02.2016 01:38 3,5 C 3,3 C 2,2 C 93 % 0 lf 1024,0 hPa 0,0 l/m 0 min 0 min 0 W/m 12,6 km/h (3 Bft) 97,87 %
04.02.2016 01:40 3,5 C 3,3 C 2,2 C 93 % 0 lf 1024,0 hPa 0,0 l/m 0 min 0 min 0 W/m 12,6 km/h (3 Bft) 97,87 %
04.02.2016 01:42 3,4 C 3,3 C 2,2 C 93 % 0 lf 1024,0 hPa 0,0 l/m 0 min 0 min 0 W/m 14,6 km/h (3 Bft) 95,74 %
04.02.2016 01:44 3,4 C 3,3 C 2,2 C 93 % 0 lf 1024,0 hPa 0,0 l/m 0 min 0 min 0 W/m 10,5 km/h (2 Bft) 93,62 %
04.02.2016 01:46 3,4 C 3,3 C 2,2 C 93 % 0 lf 1023,9 hPa 0,0 l/m 0 min 0 min 0 W/m 20,9 km/h (4 Bft) 95,74 %
04.02.2016 01:48 3,4 C 3,3 C 2,2 C 93 % 0 lf 1024,0 hPa 0,0 l/m 0 min 0 min 0 W/m 16,7 km/h (3 Bft) 97,83 %
04.02.2016 01:50 3,4 C 3,3 C 2,2 C 93 % 0 lf 1024,0 hPa 0,0 l/m 0 min 0 min 0 W/m 20,9 km/h (4 Bft) 93,62 %
04.02.2016 01:52 3,4 C 3,3 C 2,2 C 93 % 0 lf 1024,0 hPa 0,0 l/m 0 min 0 min 0 W/m 14,6 km/h (3 Bft) 95,74 %
04.02.2016 01:54 3,4 C 3,3 C 2,2 C 93 % 0 lf 1024,1 hPa 0,0 l/m 0 min 0 min 0 W/m 16,7 km/h (3 Bft) 91,49 %
04.02.2016 01:56 3,4 C 3,3 C 2,2 C 93 % 0 lf 1024,1 hPa 0,0 l/m 0 min 0 min 0 W/m 14,6 km/h (3 Bft) 95,74 %
04.02.2016 01:58 3,4 C 3,3 C 2,2 C 93 % 0 lf 1024,0 hPa 0,0 l/m 0 min 0 min 0 W/m 12,6 km/h (3 Bft) 93,48 %
04.02.2016 02:00 3,4 C 3,3 C 2,2 C 93 % 0 lf 1024,2 hPa 0,0 l/m 0 min 0 min 0 W/m 16,7 km/h (3 Bft) 93,62 %
04.02.2016 02:02 3,4 C 3,3 C 2,2 C 93 % 0 lf 1024,1 hPa 0,0 l/m 0 min 0 min 0 W/m 16,7 km/h (3 Bft) 100,00 %
04.02.2016 02:04 3,4 C 3,3 C 2,2 C 93 % 0 lf 1024,2 hPa 0,0 l/m 0 min 0 min 0 W/m 18,8 km/h (3 Bft) 93,62 %
04.02.2016 02:06 3,4 C 3,3 C 2,2 C 93 % 0 lf 1024,2 hPa 0,0 l/m 0 min 0 min 0 W/m 20,9 km/h (4 Bft) 95,74 %
04.02.2016 02:08 3,4 C 3,3 C 2,2 C 93 % 0 lf 1024,3 hPa 0,0 l/m 0 min 0 min 0 W/m 20,9 km/h (4 Bft) 97,87 %
04.02.2016 02:10 3,4 C 3,3 C 2,2 C 93 % 0 lf 1024,3 hPa 0,0 l/m 0 min 0 min 0 W/m 18,8 km/h (3 Bft) 93,48 %
04.02.2016 02:12 3,4 C 3,3 C 2,2 C 93 % 0 lf 1024,3 hPa 0,0 l/m 0 min 0 min 0 W/m 33,5 km/h (5 Bft) 95,74 %
04.02.2016 02:14 3,4 C 3,9 C 2,2 C 93 % 0 lf 1024,3 hPa 0,0 l/m 0 min 0 min 0 W/m 23,0 km/h (4 Bft) 95,74 %
04.02.2016 02:16 3,4 C 3,9 C 2,2 C 93 % 0 lf 1024,3 hPa 0,0 l/m 0 min 0 min 0 W/m 14,6 km/h (3 Bft) 91,49 %
04.02.2016 02:18 3,4 C 3,9 C 2,2 C 93 % 0 lf 1024,3 hPa 0,0 l/m 0 min 0 min 0 W/m 14,6 km/h (3 Bft) 93,62 %
04.02.2016 02:20 3,4 C 3,9 C 2,2 C 93 % 0 lf 1024,3 hPa 0,0 l/m 0 min 0 min 0 W/m 16,7 km/h (3 Bft) 95,74 %
04.02.2016 02:22 3,4 C 3,9 C 2,2 C 93 % 0 lf 1024,3 hPa 0,0 l/m 0 min 0 min 0 W/m 14,6 km/h (3 Bft) 95,65 %
04.02.2016 02:24 3,4 C 3,9 C 2,2 C 93 % 0 lf 1024,4 hPa 0,0 l/m 0 min 0 min 0 W/m 16,7 km/h (3 Bft) 95,74 %
04.02.2016 02:26 3,4 C 3,9 C 2,2 C 93 % 0 lf 1024,3 hPa 0,0 l/m 0 min 0 min 0 W/m 16,7 km/h (3 Bft) 95,74 %
04.02.2016 02:28 3,4 C 3,9 C 2,2 C 93 % 0 lf 1024,4 hPa 0,0 l/m 0 min 0 min 0 W/m 12,6 km/h (3 Bft) 95,74 %
04.02.2016 02:30 3,4 C 3,9 C 2,2 C 93 % 0 lf 1024,4 hPa 0,0 l/m 0 min 0 min 0 W/m 16,7 km/h (3 Bft) 95,74 %
04.02.2016 02:32 3,4 C 3,9 C 2,2 C 93 % 0 lf 1024,6 hPa 0,0 l/m 0 min 0 min 0 W/m 12,6 km/h (3 Bft) 93,62 %
04.02.2016 02:34 3,5 C 3,9 C 2,2 C 93 % 0 lf 1024,6 hPa 0,0 l/m 0 min 0 min 0 W/m 14,6 km/h (3 Bft) 95,65 %
04.02.2016 02:36 3,4 C 3,9 C 2,2 C 93 % 0 lf 1024,6 hPa 0,0 l/m 0 min 0 min 0 W/m 12,6 km/h (3 Bft) 95,74 %
04.02.2016 02:38 3,5 C 3,9 C 2,2 C 94 % 0 lf 1024,5 hPa 0,0 l/m 0 min 0 min 0 W/m 18,8 km/h (3 Bft) 95,74 %
04.02.2016 02:40 3,5 C 3,9 C 2,8 C 94 % 0 lf 1024,5 hPa 0,0 l/m 0 min 0 min 0 W/m 18,8 km/h (3 Bft) 100,00 %
04.02.2016 02:42 3,5 C 3,9 C 2,8 C 94 % 0 lf 1024,6 hPa 0,0 l/m 0 min 0 min 0 W/m 14,6 km/h (3 Bft) 97,87 %
04.02.2016 02:44 3,5 C 3,9 C 2,8 C 94 % 0 lf 1024,6 hPa 0,0 l/m 0 min 0 min 0 W/m 16,7 km/h (3 Bft) 93,62 %
04.02.2016 02:46 3,5 C 3,9 C 2,8 C 94 % 0 lf 1024,6 hPa 0,0 l/m 0 min 0 min 0 W/m 14,6 km/h (3 Bft) 97,83 %
04.02.2016 02:48 3,5 C 3,9 C 2,8 C 94 % 0 lf 1024,6 hPa 0,0 l/m 0 min 0 min 0 W/m 12,6 km/h (3 Bft) 97,87 %
04.02.2016 02:50 3,5 C 3,9 C 2,8 C 94 % 0 lf 1024,7 hPa 0,0 l/m 0 min 2 min 0 W/m 18,8 km/h (3 Bft) 89,36 %
04.02.2016 02:52 3,6 C 3,9 C 2,8 C 94 % 2 lf 1024,7 hPa 0,0 l/m 0 min 2 min 0 W/m 20,9 km/h (4 Bft) 100,00 %
04.02.2016 02:54 3,6 C 3,9 C 2,8 C 94 % 14 lf 1024,7 hPa 0,0 l/m 0 min 2 min 0 W/m 12,6 km/h (3 Bft) 95,74 %
04.02.2016 02:56 3,6 C 3,9 C 2,2 C 94 % 15 lf 1024,6 hPa 0,0 l/m 0 min 2 min 0 W/m 18,8 km/h (3 Bft) 100,00 %
04.02.2016 02:58 3,6 C 3,9 C 2,2 C 94 % 15 lf 1024,6 hPa 0,0 l/m 0 min 0 min 0 W/m 14,6 km/h (3 Bft) 100,00 %
04.02.2016 03:00 3,6 C 3,9 C 2,2 C 94 % 14 lf 1024,6 hPa 0,0 l/m 0 min 0 min 0 W/m 18,8 km/h (3 Bft) 100,00 %
04.02.2016 03:02 3,6 C 3,9 C 2,2 C 93 % 14 lf 1024,6 hPa 0,0 l/m 0 min 0 min 0 W/m 18,8 km/h (3 Bft) 97,87 %
04.02.2016 03:04 3,6 C 3,9 C 2,2 C 93 % 14 lf 1024,6 hPa 0,0 l/m 0 min 0 min 0 W/m 14,6 km/h (3 Bft) 100,00 %
04.02.2016 03:06 3,6 C 3,9 C 2,2 C 93 % 14 lf 1024,5 hPa 0,0 l/m 0 min 0 min 0 W/m 16,7 km/h (3 Bft) 100,00 %
04.02.2016 03:08 3,6 C 3,9 C 2,2 C 93 % 14 lf 1024,4 hPa 0,0 l/m 0 min 0 min 0 W/m 14,6 km/h (3 Bft) 100,00 %
04.02.2016 03:10 3,6 C 3,9 C 2,2 C 93 % 14 lf 1024,5 hPa 0,0 l/m 0 min 0 min 0 W/m 20,9 km/h (4 Bft) 100,00 %
04.02.2016 03:12 3,6 C 3,9 C 2,2 C 93 % 13 lf 1024,6 hPa 0,0 l/m 0 min 0 min 0 W/m 20,9 km/h (4 Bft) 100,00 %
04.02.2016 03:14 3,6 C 3,9 C 2,2 C 93 % 13 lf 1024,5 hPa 0,0 l/m 0 min 0 min 0 W/m 16,7 km/h (3 Bft) 95,74 %
04.02.2016 03:16 3,6 C 3,9 C 2,2 C 93 % 12 lf 1024,5 hPa 0,0 l/m 0 min 0 min 0 W/m 18,8 km/h (3 Bft) 97,87 %
04.02.2016 03:18 3,6 C 3,9 C 2,2 C 93 % 12 lf 1024,5 hPa 0,0 l/m 0 min 0 min 0 W/m 16,7 km/h (3 Bft) 100,00 %
04.02.2016 03:20 3,6 C 3,3 C 2,2 C 93 % 12 lf 1024,5 hPa 0,0 l/m 0 min 0 min 0 W/m 14,6 km/h (3 Bft) 100,00 %
04.02.2016 03:22 3,6 C 3,3 C 2,2 C 93 % 11 lf 1024,5 hPa 0,0 l/m 0 min 0 min 0 W/m 18,8 km/h (3 Bft) 97,87 %
04.02.2016 03:24 3,6 C 3,3 C 2,2 C 93 % 11 lf 1024,5 hPa 0,0 l/m 0 min 0 min 0 W/m 14,6 km/h (3 Bft) 95,74 %
04.02.2016 03:26 3,5 C 3,3 C 2,2 C 93 % 10 lf 1024,5 hPa 0,0 l/m 0 min 0 min 0 W/m 18,8 km/h (3 Bft) 93,62 %
04.02.2016 03:28 3,5 C 3,3 C 2,2 C 93 % 10 lf 1024,5 hPa 0,0 l/m 0 min 0 min 0 W/m 20,9 km/h (4 Bft) 100,00 %
04.02.2016 03:30 3,5 C 3,3 C 2,2 C 93 % 9 lf 1024,5 hPa 0,0 l/m 0 min 0 min 0 W/m 20,9 km/h (4 Bft) 97,87 %
04.02.2016 03:32 3,4 C 3,3 C 2,2 C 93 % 8 lf 1024,5 hPa 0,0 l/m 0 min 0 min 0 W/m 16,7 km/h (3 Bft) 97,83 %
04.02.2016 03:34 3,4 C 3,3 C 2,2 C 93 % 8 lf 1024,3 hPa 0,0 l/m 0 min 0 min 0 W/m 20,9 km/h (4 Bft) 97,87 %
04.02.2016 03:36 3,4 C 3,3 C 2,2 C 93 % 7 lf 1024,3 hPa 0,0 l/m 0 min 0 min 0 W/m 20,9 km/h (4 Bft) 97,87 %
04.02.2016 03:38 3,4 C 3,3 C 2,2 C 93 % 7 lf 1024,3 hPa 0,0 l/m 0 min 0 min 0 W/m 16,7 km/h (3 Bft) 97,87 %
04.02.2016 03:40 3,4 C 3,3 C 1,7 C 93 % 6 lf 1024,3 hPa 0,0 l/m 0 min 0 min 0 W/m 20,9 km/h (4 Bft) 97,87 %
04.02.2016 03:42 3,4 C 3,3 C 1,7 C 93 % 6 lf 1024,3 hPa 0,0 l/m 0 min 0 min 0 W/m 14,6 km/h (3 Bft) 95,74 %
04.02.2016 03:44 3,4 C 3,3 C 1,7 C 93 % 5 lf 1024,3 hPa 0,0 l/m 0 min 0 min 0 W/m 16,7 km/h (3 Bft) 95,65 %
04.02.2016 03:46 3,4 C 3,3 C 1,7 C 93 % 4 lf 1024,2 hPa 0,0 l/m 0 min 0 min 0 W/m 16,7 km/h (3 Bft) 97,87 %
04.02.2016 03:48 3,3 C 3,3 C 2,2 C 93 % 4 lf 1024,2 hPa 0,0 l/m 0 min 0 min 0 W/m 14,6 km/h (3 Bft) 93,62 %
04.02.2016 03:50 3,3 C 3,3 C 2,2 C 93 % 4 lf 1024,2 hPa 0,0 l/m 0 min 0 min 0 W/m 16,7 km/h (3 Bft) 95,74 %
04.02.2016 03:52 3,3 C 3,3 C 1,7 C 93 % 4 lf 1024,3 hPa 0,0 l/m 0 min 0 min 0 W/m 18,8 km/h (3 Bft) 97,87 %
04.02.2016 03:54 3,3 C 3,3 C 1,7 C 93 % 4 lf 1024,2 hPa 0,0 l/m 0 min 0 min 0 W/m 16,7 km/h (3 Bft) 95,74 %
04.02.2016 03:56 3,3 C 3,3 C 1,7 C 93 % 3 lf 1024,2 hPa 0,0 l/m 0 min 0 min 0 W/m 16,7 km/h (3 Bft) 95,65 %
04.02.2016 03:58 3,3 C 3,3 C 1,7 C 93 % 3 lf 1024,2 hPa 0,0 l/m 0 min 0 min 0 W/m 23,0 km/h (4 Bft) 91,49 %
04.02.2016 04:00 3,3 C 3,3 C 1,7 C 93 % 3 lf 1024,2 hPa 0,0 l/m 0 min 0 min 0 W/m 14,6 km/h (3 Bft) 93,62 %
04.02.2016 04:02 3,3 C 3,3 C 1,7 C 93 % 3 lf 1024,2 hPa 0,0 l/m 0 min 0 min 0 W/m 12,6 km/h (3 Bft) 100,00 %
04.02.2016 04:04 3,3 C 2,8 C 1,7 C 93 % 3 lf 1024,2 hPa 0,0 l/m 0 min 0 min 0 W/m 14,6 km/h (3 Bft) 97,87 %
04.02.2016 04:06 3,2 C 2,8 C 1,7 C 93 % 3 lf 1024,1 hPa 0,0 l/m 0 min 0 min 0 W/m 16,7 km/h (3 Bft) 95,65 %
04.02.2016 04:08 3,2 C 2,8 C 1,7 C 93 % 3 lf 1024,2 hPa 0,0 l/m 0 min 0 min 0 W/m 14,6 km/h (3 Bft) 93,62 %
04.02.2016 04:10 3,2 C 2,8 C 1,7 C 93 % 3 lf 1024,2 hPa 0,0 l/m 0 min 0 min 0 W/m 18,8 km/h (3 Bft) 91,49 %
04.02.2016 04:12 3,2 C 2,8 C 1,7 C 93 % 3 lf 1024,1 hPa 0,0 l/m 0 min 2 min 0 W/m 18,8 km/h (3 Bft) 93,62 %
04.02.2016 04:14 3,2 C 2,8 C 1,7 C 93 % 2 lf 1024,1 hPa 0,0 l/m 0 min 0 min 0 W/m 12,6 km/h (3 Bft) 93,62 %
04.02.2016 04:16 3,2 C 2,8 C 1,7 C 93 % 2 lf 1024,2 hPa 0,0 l/m 0 min 0 min 0 W/m 16,7 km/h (3 Bft) 93,62 %
04.02.2016 04:18 3,1 C 2,8 C 1,7 C 93 % 2 lf 1024,2 hPa 0,0 l/m 0 min 0 min 0 W/m 18,8 km/h (3 Bft) 93,62 %
04.02.2016 04:20 3,1 C 2,8 C 1,7 C 93 % 2 lf 1024,2 hPa 0,0 l/m 0 min 0 min 0 W/m 20,9 km/h (4 Bft) 91,30 %
04.02.2016 04:22 3,1 C 2,8 C 1,7 C 93 % 2 lf 1024,2 hPa 0,0 l/m 0 min 0 min 0 W/m 23,0 km/h (4 Bft) 91,49 %
04.02.2016 04:24 3,1 C 2,8 C 1,7 C 94 % 2 lf 1024,2 hPa 0,0 l/m 0 min 0 min 0 W/m 18,8 km/h (3 Bft) 93,62 %
04.02.2016 04:26 3,1 C 2,8 C 1,7 C 94 % 1 lf 1024,1 hPa 0,0 l/m 0 min 0 min 0 W/m 20,9 km/h (4 Bft) 91,49 %
04.02.2016 04:28 3,0 C 2,8 C 1,7 C 94 % 1 lf 1024,1 hPa 0,0 l/m 0 min 0 min 0 W/m 16,7 km/h (3 Bft) 93,62 %
04.02.2016 04:30 3,0 C 2,8 C 1,7 C 94 % 1 lf 1024,0 hPa 0,0 l/m 0 min 0 min 0 W/m 20,9 km/h (4 Bft) 93,48 %
04.02.2016 04:32 3,0 C 2,8 C 1,7 C 94 % 1 lf 1024,0 hPa 0,0 l/m 0 min 0 min 0 W/m 14,6 km/h (3 Bft) 95,74 %
04.02.2016 04:34 2,9 C 2,8 C 1,7 C 94 % 1 lf 1024,0 hPa 0,0 l/m 0 min 0 min 0 W/m 23,0 km/h (4 Bft) 95,74 %
04.02.2016 04:36 2,9 C 2,8 C 1,7 C 94 % 0 lf 1024,0 hPa 0,0 l/m 0 min 0 min 0 W/m 20,9 km/h (4 Bft) 95,74 %
04.02.2016 04:38 2,9 C 2,8 C 1,7 C 94 % 0 lf 1023,9 hPa 0,0 l/m 0 min 2 min 0 W/m 18,8 km/h (3 Bft) 93,62 %
04.02.2016 04:40 2,9 C 2,8 C 1,7 C 94 % 0 lf 1023,9 hPa 0,0 l/m 0 min 0 min 0 W/m 18,8 km/h (3 Bft) 89,36 %
04.02.2016 04:42 2,9 C 2,8 C 1,7 C 94 % 0 lf 1023,9 hPa 0,0 l/m 0 min 0 min 0 W/m 25,1 km/h (4 Bft) 93,48 %
04.02.2016 04:44 2,9 C 2,8 C 1,7 C 94 % 0 lf 1023,9 hPa 0,0 l/m 0 min 0 min 0 W/m 18,8 km/h (3 Bft) 91,49 %
04.02.2016 04:46 2,9 C 2,8 C 1,7 C 94 % 0 lf 1023,9 hPa 0,0 l/m 0 min 0 min 0 W/m 25,1 km/h (4 Bft) 95,74 %
04.02.2016 04:48 2,9 C 2,8 C 1,7 C 94 % 0 lf 1024,0 hPa 0,0 l/m 0 min 0 min 0 W/m 14,6 km/h (3 Bft) 95,74 %
04.02.2016 04:50 2,9 C 2,8 C 1,7 C 94 % 0 lf 1023,9 hPa 0,0 l/m 0 min 0 min 0 W/m 18,8 km/h (3 Bft) 93,62 %
04.02.2016 04:52 2,9 C 2,8 C 1,7 C 94 % 0 lf 1023,9 hPa 0,0 l/m 0 min 0 min 0 W/m 18,8 km/h (3 Bft) 93,62 %
04.02.2016 04:54 2,9 C 2,8 C 1,7 C 94 % 0 lf 1023,9 hPa 0,0 l/m 0 min 0 min 0 W/m 23,0 km/h (4 Bft) 95,65 %
04.02.2016 04:56 2,9 C 2,8 C 1,7 C 94 % 0 lf 1023,9 hPa 0,0 l/m 0 min 0 min 0 W/m 16,7 km/h (3 Bft) 91,49 %
04.02.2016 04:58 2,9 C 2,8 C 1,7 C 94 % 0 lf 1023,9 hPa 0,0 l/m 0 min 0 min 0 W/m 18,8 km/h (3 Bft) 93,62 %
04.02.2016 05:00 2,9 C 3,3 C 1,7 C 94 % 0 lf 1023,8 hPa 0,0 l/m 0 min 0 min 0 W/m 18,8 km/h (3 Bft) 93,62 %
04.02.2016 05:02 2,9 C 2,8 C 1,7 C 94 % 0 lf 1023,8 hPa 0,0 l/m 0 min 0 min 0 W/m 16,7 km/h (3 Bft) 97,87 %
04.02.2016 05:04 2,9 C 2,8 C 1,7 C 94 % 0 lf 1023,7 hPa 0,0 l/m 0 min 0 min 0 W/m 14,6 km/h (3 Bft) 95,74 %
04.02.2016 05:06 2,9 C 2,8 C 1,7 C 94 % 0 lf 1023,6 hPa 0,0 l/m 0 min 0 min 0 W/m 16,7 km/h (3 Bft) 95,65 %
04.02.2016 05:08 2,9 C 2,8 C 1,7 C 94 % 0 lf 1023,7 hPa 0,0 l/m 0 min 0 min 0 W/m 14,6 km/h (3 Bft) 93,62 %
04.02.2016 05:10 2,9 C 2,8 C 1,7 C 94 % 0 lf 1023,7 hPa 0,0 l/m 0 min 0 min 0 W/m 20,9 km/h (4 Bft) 95,74 %
04.02.2016 05:12 2,8 C 2,8 C 1,7 C 94 % 0 lf 1023,6 hPa 0,0 l/m 0 min 0 min 0 W/m 20,9 km/h (4 Bft) 93,62 %
04.02.2016 05:14 2,8 C 2,8 C 1,7 C 94 % 0 lf 1023,6 hPa 0,0 l/m 0 min 0 min 0 W/m 14,6 km/h (3 Bft) 93,62 %
04.02.2016 05:16 2,8 C 2,8 C 1,7 C 94 % 0 lf 1023,6 hPa 0,0 l/m 0 min 0 min 0 W/m 20,9 km/h (4 Bft) 97,83 %
04.02.2016 05:18 2,8 C 2,8 C 1,7 C 94 % 0 lf 1023,6 hPa 0,0 l/m 0 min 0 min 0 W/m 18,8 km/h (3 Bft) 95,74 %
04.02.2016 05:20 2,8 C 2,8 C 1,7 C 94 % 0 lf 1023,5 hPa 0,0 l/m 0 min 0 min 0 W/m 18,8 km/h (3 Bft) 95,74 %
04.02.2016 05:22 2,8 C 2,8 C 1,7 C 94 % 0 lf 1023,5 hPa 0,0 l/m 0 min 0 min 0 W/m 16,7 km/h (3 Bft) 95,74 %
04.02.2016 05:24 2,8 C 2,8 C 1,7 C 94 % 0 lf 1023,5 hPa 0,0 l/m 0 min 0 min 0 W/m 20,9 km/h (4 Bft) 100,00 %
04.02.2016 05:26 2,8 C 2,8 C 1,7 C 94 % 0 lf 1023,4 hPa 0,0 l/m 0 min 0 min 0 W/m 16,7 km/h (3 Bft) 100,00 %
04.02.2016 05:28 2,8 C 2,8 C 1,7 C 94 % 0 lf 1023,4 hPa 0,0 l/m 0 min 0 min 0 W/m 16,7 km/h (3 Bft) 100,00 %
04.02.2016 05:30 2,8 C 2,8 C 1,7 C 94 % 0 lf 1023,5 hPa 0,0 l/m 0 min 0 min 0 W/m 20,9 km/h (4 Bft) 97,87 %
04.02.2016 05:32 2,8 C 2,8 C 1,7 C 94 % 0 lf 1023,5 hPa 0,0 l/m 0 min 0 min 0 W/m 12,6 km/h (3 Bft) 97,87 %
04.02.2016 05:34 2,8 C 2,8 C 1,7 C 94 % 0 lf 1023,5 hPa 0,0 l/m 0 min 0 min 0 W/m 20,9 km/h (4 Bft) 97,87 %
04.02.2016 05:36 2,8 C 3,3 C 1,7 C 94 % 0 lf 1023,4 hPa 0,0 l/m 0 min 0 min 0 W/m 23,0 km/h (4 Bft) 91,49 %
04.02.2016 05:38 2,8 C 2,8 C 1,7 C 94 % 0 lf 1023,4 hPa 0,0 l/m 0 min 0 min 0 W/m 16,7 km/h (3 Bft) 100,00 %
04.02.2016 05:40 2,8 C 2,8 C 1,7 C 94 % 0 lf 1023,4 hPa 0,0 l/m 0 min 0 min 0 W/m 14,6 km/h (3 Bft) 100,00 %
04.02.2016 05:42 2,8 C 2,8 C 1,7 C 94 % 0 lf 1023,4 hPa 0,0 l/m 0 min 0 min 0 W/m 14,6 km/h (3 Bft) 95,74 %
04.02.2016 05:44 2,8 C 2,8 C 1,7 C 94 % 0 lf 1023,4 hPa 0,0 l/m 0 min 0 min 0 W/m 18,8 km/h (3 Bft) 95,74 %
04.02.2016 05:46 2,8 C 2,8 C 1,7 C 94 % 0 lf 1023,4 hPa 0,0 l/m 0 min 0 min 0 W/m 16,7 km/h (3 Bft) 97,87 %
04.02.2016 05:48 2,8 C 2,8 C 1,7 C 94 % 0 lf 1023,4 hPa 0,0 l/m 0 min 0 min 0 W/m 16,7 km/h (3 Bft) 97,87 %
04.02.2016 05:50 2,8 C 2,8 C 1,7 C 94 % 0 lf 1023,5 hPa 0,0 l/m 0 min 0 min 0 W/m 23,0 km/h (4 Bft) 95,74 %
04.02.2016 05:52 2,8 C 2,8 C 1,7 C 94 % 0 lf 1023,5 hPa 0,0 l/m 0 min 0 min 0 W/m 12,6 km/h (3 Bft) 93,48 %
04.02.2016 05:54 2,8 C 2,8 C 1,7 C 94 % 0 lf 1023,5 hPa 0,0 l/m 0 min 0 min 0 W/m 18,8 km/h (3 Bft) 97,87 %
04.02.2016 05:56 2,8 C 2,8 C 1,7 C 94 % 0 lf 1023,4 hPa 0,0 l/m 0 min 0 min 0 W/m 16,7 km/h (3 Bft) 95,74 %
04.02.2016 05:58 2,8 C 2,8 C 1,7 C 94 % 0 lf 1023,4 hPa 0,0 l/m 0 min 0 min 0 W/m 16,7 km/h (3 Bft) 97,87 %
04.02.2016 06:00 2,8 C 2,8 C 1,7 C 93 % 0 lf 1023,4 hPa 0,0 l/m 0 min 0 min 0 W/m 16,7 km/h (3 Bft) 97,87 %
04.02.2016 06:02 2,8 C 2,8 C 1,7 C 93 % 0 lf 1023,4 hPa 0,0 l/m 0 min 0 min 0 W/m 16,7 km/h (3 Bft) 97,87 %
04.02.2016 06:04 2,8 C 2,8 C 1,7 C 93 % 0 lf 1023,4 hPa 0,0 l/m 0 min 0 min 0 W/m 18,8 km/h (3 Bft) 95,74 %
04.02.2016 06:06 2,8 C 2,8 C 1,7 C 93 % 0 lf 1023,3 hPa 0,0 l/m 0 min 0 min 0 W/m 18,8 km/h (3 Bft) 97,87 %
04.02.2016 06:08 2,8 C 2,8 C 1,7 C 93 % 0 lf 1023,3 hPa 0,0 l/m 0 min 0 min 0 W/m 20,9 km/h (4 Bft) 95,74 %
04.02.2016 06:10 2,8 C 2,8 C 1,7 C 93 % 0 lf 1023,3 hPa 0,0 l/m 0 min 0 min 0 W/m 16,7 km/h (3 Bft) 97,87 %
04.02.2016 06:12 2,8 C 2,8 C 1,7 C 93 % 0 lf 1023,3 hPa 0,0 l/m 0 min 0 min 0 W/m 23,0 km/h (4 Bft) 97,87 %
04.02.2016 06:14 2,8 C 2,8 C 1,7 C 93 % 0 lf 1023,4 hPa 0,0 l/m 0 min 0 min 0 W/m 23,0 km/h (4 Bft) 100,00 %
04.02.2016 06:16 2,8 C 3,3 C 1,7 C 93 % 0 lf 1023,4 hPa 0,0 l/m 0 min 0 min 0 W/m 18,8 km/h (3 Bft) 100,00 %
04.02.2016 06:18 2,8 C 3,3 C 1,7 C 93 % 0 lf 1023,3 hPa 0,0 l/m 0 min 0 min 0 W/m 18,8 km/h (3 Bft) 100,00 %
04.02.2016 06:20 2,8 C 3,3 C 1,7 C 93 % 0 lf 1023,3 hPa 0,0 l/m 0 min 0 min 0 W/m 20,9 km/h (4 Bft) 97,87 %
04.02.2016 06:22 2,8 C 3,3 C 1,7 C 93 % 0 lf 1023,4 hPa 0,0 l/m 0 min 0 min 0 W/m 23,0 km/h (4 Bft) 97,87 %
04.02.2016 06:24 2,9 C 2,8 C 1,7 C 93 % 0 lf 1023,2 hPa 0,0 l/m 0 min 0 min 0 W/m 20,9 km/h (4 Bft) 100,00 %
04.02.2016 06:26 2,9 C 2,8 C 1,7 C 93 % 0 lf 1023,1 hPa 0,0 l/m 0 min 0 min 0 W/m 25,1 km/h (4 Bft) 97,83 %
04.02.2016 06:28 2,9 C 2,8 C 1,7 C 93 % 0 lf 1023,0 hPa 0,0 l/m 0 min 0 min 0 W/m 23,0 km/h (4 Bft) 97,87 %
04.02.2016 06:30 2,9 C 2,8 C 1,7 C 93 % 0 lf 1023,0 hPa 0,0 l/m 0 min 0 min 0 W/m 23,0 km/h (4 Bft) 100,00 %
04.02.2016 06:32 2,9 C 2,8 C 1,7 C 93 % 0 lf 1022,9 hPa 0,0 l/m 0 min 0 min 0 W/m 23,0 km/h (4 Bft) 97,87 %
04.02.2016 06:34 2,9 C 2,8 C 1,7 C 93 % 0 lf 1022,9 hPa 0,0 l/m 0 min 0 min 0 W/m 16,7 km/h (3 Bft) 97,87 %
04.02.2016 06:36 2,9 C 2,8 C 1,7 C 93 % 0 lf 1022,8 hPa 0,0 l/m 0 min 0 min 0 W/m 14,6 km/h (3 Bft) 100,00 %
04.02.2016 06:38 2,9 C 3,3 C 1,7 C 93 % 0 lf 1022,9 hPa 0,0 l/m 0 min 0 min 0 W/m 27,2 km/h (4 Bft) 100,00 %
04.02.2016 06:40 2,9 C 3,3 C 1,7 C 93 % 0 lf 1022,9 hPa 0,0 l/m 0 min 0 min 0 W/m 20,9 km/h (4 Bft) 97,87 %
04.02.2016 06:42 2,9 C 3,3 C 1,7 C 93 % 0 lf 1022,9 hPa 0,0 l/m 0 min 0 min 0 W/m 16,7 km/h (3 Bft) 95,74 %
04.02.2016 06:44 2,9 C 3,3 C 1,7 C 93 % 0 lf 1022,8 hPa 0,0 l/m 0 min 0 min 0 W/m 25,1 km/h (4 Bft) 97,87 %
04.02.2016 06:46 2,9 C 3,3 C 2,2 C 93 % 0 lf 1022,9 hPa 0,0 l/m 0 min 0 min 0 W/m 20,9 km/h (4 Bft) 97,87 %
04.02.2016 06:48 3,0 C 3,3 C 2,2 C 93 % 0 lf 1022,8 hPa 0,0 l/m 0 min 0 min 0 W/m 27,2 km/h (4 Bft) 97,87 %
04.02.2016 06:50 3,0 C 3,3 C 2,2 C 93 % 0 lf 1022,8 hPa 0,0 l/m 0 min 0 min 0 W/m 14,6 km/h (3 Bft) 97,83 %
04.02.2016 06:52 3,0 C 3,3 C 2,2 C 93 % 0 lf 1022,8 hPa 0,0 l/m 0 min 0 min 0 W/m 20,9 km/h (4 Bft) 100,00 %
04.02.2016 06:54 3,0 C 3,3 C 2,2 C 93 % 0 lf 1022,7 hPa 0,0 l/m 0 min 0 min 0 W/m 16,7 km/h (3 Bft) 100,00 %
04.02.2016 06:56 3,1 C 3,3 C 2,2 C 93 % 0 lf 1022,8 hPa 0,0 l/m 0 min 0 min 0 W/m 18,8 km/h (3 Bft) 95,74 %
04.02.2016 06:58 3,1 C 3,3 C 2,2 C 93 % 0 lf 1022,8 hPa 0,0 l/m 0 min 0 min 0 W/m 18,8 km/h (3 Bft) 97,87 %
04.02.2016 07:00 3,1 C 3,3 C 2,2 C 93 % 0 lf 1022,7 hPa 0,0 l/m 0 min 0 min 0 W/m 23,0 km/h (4 Bft) 95,74 %
04.02.2016 07:02 3,1 C 3,3 C 2,2 C 93 % 0 lf 1022,7 hPa 0,0 l/m 0 min 0 min 0 W/m 23,0 km/h (4 Bft) 100,00 %
04.02.2016 07:04 3,1 C 3,3 C 2,2 C 93 % 0 lf 1022,7 hPa 0,0 l/m 0 min 0 min 0 W/m 20,9 km/h (4 Bft) 95,74 %
04.02.2016 07:06 3,1 C 3,3 C 2,2 C 93 % 0 lf 1022,7 hPa 0,0 l/m 0 min 0 min 0 W/m 25,1 km/h (4 Bft) 95,74 %
04.02.2016 07:08 3,2 C 3,3 C 2,2 C 93 % 0 lf 1022,7 hPa 0,0 l/m 0 min 0 min 0 W/m 31,4 km/h (5 Bft) 97,87 %
04.02.2016 07:10 3,2 C 3,3 C 2,2 C 93 % 0 lf 1022,7 hPa 0,0 l/m 0 min 0 min 0 W/m 20,9 km/h (4 Bft) 97,87 %
04.02.2016 07:12 3,2 C 3,3 C 2,2 C 93 % 0 lf 1022,6 hPa 0,0 l/m 0 min 0 min 0 W/m 16,7 km/h (3 Bft) 95,74 %
04.02.2016 07:14 3,2 C 3,3 C 2,2 C 93 % 0 lf 1022,6 hPa 0,0 l/m 0 min 0 min 0 W/m 18,8 km/h (3 Bft) 95,65 %
04.02.2016 07:16 3,2 C 3,3 C 2,2 C 93 % 0 lf 1022,7 hPa 0,0 l/m 0 min 0 min 0 W/m 16,7 km/h (3 Bft) 91,49 %
04.02.2016 07:18 3,2 C 3,3 C 2,2 C 93 % 0 lf 1022,8 hPa 0,0 l/m 0 min 0 min 0 W/m 25,1 km/h (4 Bft) 89,36 %
04.02.2016 07:20 3,2 C 3,3 C 2,2 C 93 % 0 lf 1022,7 hPa 0,0 l/m 0 min 0 min 0 W/m 18,8 km/h (3 Bft) 93,62 %
04.02.2016 07:22 3,2 C 3,3 C 2,2 C 93 % 0 lf 1022,7 hPa 0,0 l/m 0 min 0 min 0 W/m 23,0 km/h (4 Bft) 95,74 %
04.02.2016 07:24 3,3 C 3,3 C 2,2 C 93 % 0 lf 1022,7 hPa 0,0 l/m 0 min 0 min 0 W/m 25,1 km/h (4 Bft) 93,62 %
04.02.2016 07:26 3,3 C 3,3 C 2,2 C 93 % 0 lf 1022,8 hPa 0,0 l/m 0 min 0 min 0 W/m 20,9 km/h (4 Bft) 95,65 %
04.02.2016 07:28 3,3 C 3,3 C 2,2 C 93 % 0 lf 1022,8 hPa 0,0 l/m 0 min 0 min 0 W/m 27,2 km/h (4 Bft) 93,62 %
04.02.2016 07:30 3,3 C 3,9 C 2,2 C 93 % 0 lf 1022,7 hPa 0,0 l/m 0 min 0 min 0 W/m 29,3 km/h (5 Bft) 93,62 %
04.02.2016 07:32 3,3 C 3,9 C 2,2 C 93 % 0 lf 1022,7 hPa 0,0 l/m 0 min 0 min 0 W/m 23,0 km/h (4 Bft) 89,36 %
04.02.2016 07:34 3,3 C 3,9 C 2,2 C 93 % 0 lf 1022,7 hPa 0,0 l/m 0 min 0 min 0 W/m 25,1 km/h (4 Bft) 91,49 %
04.02.2016 07:36 3,3 C 3,9 C 2,2 C 93 % 0 lf 1022,8 hPa 0,0 l/m 0 min 0 min 0 W/m 25,1 km/h (4 Bft) 91,30 %
04.02.2016 07:38 3,3 C 3,9 C 2,2 C 93 % 0 lf 1022,8 hPa 0,0 l/m 0 min 0 min 0 W/m 25,1 km/h (4 Bft) 93,62 %
04.02.2016 07:40 3,4 C 3,9 C 2,2 C 93 % 0 lf 1022,8 hPa 0,0 l/m 0 min 0 min 0 W/m 23,0 km/h (4 Bft) 91,49 %
04.02.2016 07:42 3,4 C 3,9 C 2,2 C 93 % 0 lf 1022,8 hPa 0,0 l/m 0 min 0 min 0 W/m 20,9 km/h (4 Bft) 93,62 %
04.02.2016 07:44 3,4 C 3,9 C 2,2 C 93 % 0 lf 1022,8 hPa 0,0 l/m 0 min 0 min 0 W/m 18,8 km/h (3 Bft) 89,36 %
04.02.2016 07:46 3,4 C 3,9 C 2,2 C 93 % 0 lf 1022,8 hPa 0,0 l/m 0 min 0 min 0 W/m 20,9 km/h (4 Bft) 91,49 %
04.02.2016 07:48 3,4 C 3,9 C 2,2 C 93 % 0 lf 1022,8 hPa 0,0 l/m 0 min 0 min 0 W/m 16,7 km/h (3 Bft) 93,48 %
04.02.2016 07:50 3,4 C 3,9 C 2,2 C 93 % 0 lf 1022,8 hPa 0,0 l/m 0 min 0 min 0 W/m 20,9 km/h (4 Bft) 91,49 %
04.02.2016 07:52 3,4 C 3,9 C 2,2 C 93 % 0 lf 1022,8 hPa 0,0 l/m 0 min 0 min 0 W/m 16,7 km/h (3 Bft) 89,36 %
04.02.2016 07:54 3,4 C 3,9 C 2,2 C 93 % 0 lf 1022,8 hPa 0,0 l/m 0 min 0 min 0 W/m 29,3 km/h (5 Bft) 93,62 %
04.02.2016 07:56 3,4 C 3,9 C 2,8 C 93 % 0 lf 1022,8 hPa 0,0 l/m 0 min 0 min 0 W/m 20,9 km/h (4 Bft) 95,74 %
04.02.2016 07:58 3,5 C 3,9 C 2,8 C 93 % 0 lf 1022,8 hPa 0,0 l/m 0 min 0 min 0 W/m 23,0 km/h (4 Bft) 93,62 %
04.02.2016 08:00 3,5 C 3,9 C 2,8 C 93 % 0 lf 1022,7 hPa 0,0 l/m 0 min 0 min 0 W/m 20,9 km/h (4 Bft) 93,48 %
04.02.2016 08:02 3,5 C 3,9 C 2,8 C 93 % 0 lf 1022,6 hPa 0,0 l/m 0 min 0 min 0 W/m 25,1 km/h (4 Bft) 95,74 %
04.02.2016 08:04 3,6 C 3,9 C 2,8 C 93 % 0 lf 1022,6 hPa 0,0 l/m 0 min 0 min 0 W/m 12,6 km/h (3 Bft) 95,74 %
04.02.2016 08:06 3,6 C 3,9 C 2,8 C 93 % 0 lf 1022,6 hPa 0,0 l/m 0 min 0 min 0 W/m 20,9 km/h (4 Bft) 93,62 %
04.02.2016 08:08 3,6 C 3,9 C 2,8 C 93 % 0 lf 1022,6 hPa 0,0 l/m 0 min 0 min 0 W/m 16,7 km/h (3 Bft) 95,74 %
04.02.2016 08:10 3,6 C 3,9 C 2,8 C 93 % 0 lf 1022,7 hPa 0,0 l/m 0 min 0 min 0 W/m 12,6 km/h (3 Bft) 93,62 %
04.02.2016 08:12 3,6 C 3,9 C 2,8 C 92 % 0 lf 1022,7 hPa 0,0 l/m 0 min 0 min 3 W/m 18,8 km/h (3 Bft) 97,83 %
04.02.2016 08:14 3,6 C 3,9 C 2,8 C 92 % 0 lf 1022,6 hPa 0,0 l/m 0 min 0 min 5 W/m 20,9 km/h (4 Bft) 93,62 %
04.02.2016 08:16 3,6 C 3,9 C 2,8 C 92 % 0 lf 1022,6 hPa 0,0 l/m 0 min 0 min 5 W/m 14,6 km/h (3 Bft) 95,74 %
04.02.2016 08:18 3,6 C 3,9 C 2,8 C 92 % 0 lf 1022,6 hPa 0,0 l/m 0 min 0 min 5 W/m 16,7 km/h (3 Bft) 97,87 %
04.02.2016 08:20 3,6 C 3,9 C 2,8 C 92 % 0 lf 1022,5 hPa 0,0 l/m 0 min 0 min 6 W/m 16,7 km/h (3 Bft) 95,74 %
04.02.2016 08:22 3,6 C 3,9 C 2,8 C 92 % 0 lf 1022,6 hPa 0,0 l/m 0 min 0 min 7 W/m 25,1 km/h (4 Bft) 97,87 %
04.02.2016 08:24 3,6 C 3,9 C 2,8 C 92 % 0 lf 1022,6 hPa 0,0 l/m 0 min 0 min 7 W/m 16,7 km/h (3 Bft) 97,83 %
04.02.2016 08:26 3,7 C 3,9 C 2,8 C 92 % 0 lf 1022,6 hPa 0,0 l/m 0 min 0 min 8 W/m 23,0 km/h (4 Bft) 95,74 %
04.02.2016 08:28 3,7 C 3,9 C 2,8 C 92 % 0 lf 1022,6 hPa 0,0 l/m 0 min 0 min 9 W/m 20,9 km/h (4 Bft) 95,74 %
04.02.2016 08:30 3,7 C 3,9 C 2,8 C 93 % 0 lf 1022,6 hPa 0,0 l/m 0 min 0 min 9 W/m 16,7 km/h (3 Bft) 97,87 %
04.02.2016 08:32 3,7 C 3,9 C 2,8 C 92 % 0 lf 1022,5 hPa 0,0 l/m 0 min 0 min 10 W/m 18,8 km/h (3 Bft) 97,87 %
04.02.2016 08:34 3,7 C 3,9 C 2,8 C 92 % 0 lf 1022,5 hPa 0,0 l/m 0 min 0 min 11 W/m 16,7 km/h (3 Bft) 95,74 %
04.02.2016 08:36 3,7 C 3,9 C 2,8 C 92 % 0 lf 1022,4 hPa 0,0 l/m 0 min 0 min 14 W/m 18,8 km/h (3 Bft) 97,83 %
04.02.2016 08:38 3,7 C 3,9 C 2,8 C 92 % 0 lf 1022,4 hPa 0,0 l/m 0 min 0 min 18 W/m 20,9 km/h (4 Bft) 97,87 %
04.02.2016 08:40 3,7 C 3,9 C 2,8 C 92 % 0 lf 1022,4 hPa 0,0 l/m 0 min 0 min 19 W/m 20,9 km/h (4 Bft) 97,87 %
04.02.2016 08:42 3,7 C 3,9 C 2,8 C 92 % 0 lf 1022,3 hPa 0,0 l/m 0 min 0 min 18 W/m 20,9 km/h (4 Bft) 97,87 %
04.02.2016 08:44 3,7 C 3,9 C 2,8 C 92 % 0 lf 1022,2 hPa 0,0 l/m 0 min 0 min 16 W/m 20,9 km/h (4 Bft) 93,62 %
04.02.2016 08:46 3,7 C 3,9 C 2,8 C 92 % 0 lf 1022,1 hPa 0,0 l/m 0 min 0 min 14 W/m 18,8 km/h (3 Bft) 95,65 %
04.02.2016 08:48 3,7 C 3,9 C 2,8 C 92 % 0 lf 1022,1 hPa 0,0 l/m 0 min 0 min 14 W/m 20,9 km/h (4 Bft) 97,87 %
04.02.2016 08:50 3,7 C 3,9 C 2,8 C 92 % 0 lf 1022,0 hPa 0,0 l/m 0 min 0 min 16 W/m 20,9 km/h (4 Bft) 95,74 %
04.02.2016 08:52 3,7 C 3,9 C 2,8 C 92 % 0 lf 1021,9 hPa 0,0 l/m 0 min 0 min 17 W/m 16,7 km/h (3 Bft) 97,87 %
04.02.2016 08:54 3,7 C 3,9 C 2,8 C 92 % 0 lf 1021,8 hPa 0,0 l/m 0 min 0 min 18 W/m 25,1 km/h (4 Bft) 97,87 %
04.02.2016 08:56 3,7 C 4,4 C 2,8 C 92 % 0 lf 1021,7 hPa 0,0 l/m 0 min 0 min 18 W/m 25,1 km/h (4 Bft) 95,74 %
04.02.2016 08:58 3,7 C 4,4 C 2,8 C 92 % 0 lf 1021,7 hPa 0,0 l/m 0 min 0 min 18 W/m 27,2 km/h (4 Bft) 97,83 %
04.02.2016 09:00 3,8 C 4,4 C 2,8 C 92 % 0 lf 1021,6 hPa 0,0 l/m 0 min 0 min 18 W/m 20,9 km/h (4 Bft) 93,62 %
04.02.2016 09:02 3,8 C 4,4 C 2,8 C 92 % 0 lf 1021,5 hPa 0,0 l/m 0 min 0 min 18 W/m 37,7 km/h (5 Bft) 91,49 %
04.02.2016 09:04 3,8 C 4,4 C 2,8 C 92 % 0 lf 1021,6 hPa 0,0 l/m 0 min 0 min 18 W/m 27,2 km/h (4 Bft) 95,74 %
04.02.2016 09:06 3,8 C 4,4 C 2,8 C 92 % 0 lf 1021,6 hPa 0,0 l/m 0 min 0 min 18 W/m 25,1 km/h (4 Bft) 100,00 %
04.02.2016 09:08 3,8 C 4,4 C 2,8 C 92 % 0 lf 1021,6 hPa 0,0 l/m 0 min 0 min 16 W/m 23,0 km/h (4 Bft) 100,00 %
04.02.2016 09:10 3,8 C 4,4 C 2,8 C 91 % 0 lf 1021,6 hPa 0,0 l/m 0 min 0 min 15 W/m 18,8 km/h (3 Bft) 97,83 %
04.02.2016 09:12 3,9 C 4,4 C 2,8 C 91 % 0 lf 1021,6 hPa 0,0 l/m 0 min 0 min 14 W/m 27,2 km/h (4 Bft) 97,87 %
04.02.2016 09:14 3,9 C 4,4 C 2,8 C 91 % 1 lf 1021,6 hPa 0,0 l/m 0 min 2 min 15 W/m 20,9 km/h (4 Bft) 95,74 %
04.02.2016 09:16 3,9 C 4,4 C 2,8 C 91 % 2 lf 1021,6 hPa 0,0 l/m 0 min 2 min 16 W/m 20,9 km/h (4 Bft) 97,87 %
04.02.2016 09:18 3,9 C 4,4 C 2,8 C 91 % 3 lf 1021,6 hPa 0,0 l/m 0 min 2 min 16 W/m 25,1 km/h (4 Bft) 100,00 %
04.02.2016 09:20 3,9 C 4,4 C 2,8 C 91 % 6 lf 1021,5 hPa 0,0 l/m 0 min 2 min 16 W/m 27,2 km/h (4 Bft) 100,00 %
04.02.2016 09:22 3,9 C 4,4 C 2,8 C 91 % 9 lf 1021,5 hPa 0,0 l/m 0 min 2 min 22 W/m 27,2 km/h (4 Bft) 93,48 %
04.02.2016 09:24 4,0 C 4,4 C 2,8 C 91 % 8 lf 1021,5 hPa 0,0 l/m 0 min 2 min 24 W/m 25,1 km/h (4 Bft) 95,74 %
04.02.2016 09:26 4,0 C 4,4 C 2,8 C 91 % 15 lf 1021,5 hPa 0,0 l/m 0 min 2 min 21 W/m 18,8 km/h (3 Bft) 97,87 %
04.02.2016 09:28 4,0 C 3,9 C 2,8 C 91 % 15 lf 1021,6 hPa 0,0 l/m 0 min 2 min 21 W/m 23,0 km/h (4 Bft) 95,74 %
04.02.2016 09:30 4,1 C 3,9 C 2,8 C 91 % 15 lf 1021,5 hPa 0,0 l/m 0 min 2 min 15 W/m 20,9 km/h (4 Bft) 97,87 %
04.02.2016 09:32 4,1 C 3,9 C 2,2 C 91 % 15 lf 1021,4 hPa 0,0 l/m 0 min 2 min 16 W/m 23,0 km/h (4 Bft) 95,74 %
04.02.2016 09:34 4,1 C 3,9 C 2,2 C 91 % 15 lf 1021,3 hPa 0,0 l/m 0 min 2 min 20 W/m 18,8 km/h (3 Bft) 95,65 %
04.02.2016 09:36 4,1 C 3,9 C 2,2 C 91 % 15 lf 1021,3 hPa 0,0 l/m 0 min 2 min 22 W/m 29,3 km/h (5 Bft) 97,87 %
04.02.2016 09:38 4,1 C 3,9 C 2,2 C 91 % 15 lf 1021,3 hPa 0,0 l/m 0 min 0 min 25 W/m 23,0 km/h (4 Bft) 95,74 %
04.02.2016 09:40 4,1 C 3,9 C 2,2 C 91 % 15 lf 1021,3 hPa 0,2 l/m 0 min 2 min 26 W/m 20,9 km/h (4 Bft) 95,74 %
04.02.2016 09:42 4,1 C 3,9 C 2,2 C 91 % 15 lf 1021,4 hPa 0,0 l/m 0 min 2 min 25 W/m 23,0 km/h (4 Bft) 97,87 %
04.02.2016 09:44 4,1 C 3,9 C 2,2 C 92 % 15 lf 1021,4 hPa 0,0 l/m 0 min 2 min 20 W/m 16,7 km/h (3 Bft) 95,74 %
04.02.2016 09:46 4,1 C 3,9 C 2,2 C 92 % 15 lf 1021,3 hPa 0,0 l/m 0 min 2 min 15 W/m 23,0 km/h (4 Bft) 95,65 %
04.02.2016 09:48 4,1 C 3,9 C 2,2 C 92 % 15 lf 1021,3 hPa 0,0 l/m 0 min 2 min 15 W/m 27,2 km/h (4 Bft) 95,74 %
04.02.2016 09:50 4,1 C 3,9 C 2,2 C 92 % 15 lf 1021,3 hPa 0,0 l/m 0 min 2 min 19 W/m 31,4 km/h (5 Bft) 87,23 %
04.02.2016 09:52 4,1 C 3,9 C 2,8 C 92 % 15 lf 1021,3 hPa 0,0 l/m 0 min 2 min 22 W/m 31,4 km/h (5 Bft) 95,74 %
04.02.2016 09:54 4,1 C 3,9 C 2,8 C 92 % 15 lf 1021,2 hPa 0,0 l/m 0 min 2 min 21 W/m 33,5 km/h (5 Bft) 97,87 %
04.02.2016 09:56 4,1 C 3,9 C 2,8 C 92 % 15 lf 1021,2 hPa 0,0 l/m 0 min 2 min 22 W/m 43,9 km/h (6 Bft) 93,62 %
04.02.2016 09:58 4,1 C 3,9 C 2,8 C 92 % 15 lf 1021,2 hPa 0,0 l/m 0 min 2 min 27 W/m 29,3 km/h (5 Bft) 95,65 %
04.02.2016 10:00 4,1 C 3,9 C 2,8 C 92 % 15 lf 1021,1 hPa 0,0 l/m 0 min 2 min 27 W/m 33,5 km/h (5 Bft) 97,87 %
04.02.2016 10:02 4,1 C 3,9 C 2,8 C 92 % 15 lf 1021,2 hPa 0,0 l/m 0 min 2 min 26 W/m 23,0 km/h (4 Bft) 95,74 %
04.02.2016 10:04 4,1 C 3,9 C 2,8 C 92 % 15 lf 1021,1 hPa 0,0 l/m 0 min 2 min 24 W/m 20,9 km/h (4 Bft) 97,87 %
04.02.2016 10:06 4,1 C 3,9 C 2,8 C 93 % 15 lf 1021,2 hPa 0,0 l/m 0 min 2 min 22 W/m 18,8 km/h (3 Bft) 91,49 %
04.02.2016 10:08 4,1 C 3,9 C 2,8 C 93 % 15 lf 1021,2 hPa 0,0 l/m 0 min 2 min 23 W/m 23,0 km/h (4 Bft) 84,78 %
04.02.2016 10:10 4,1 C 3,9 C 2,8 C 93 % 15 lf 1021,2 hPa 0,0 l/m 0 min 2 min 26 W/m 27,2 km/h (4 Bft) 95,74 %
04.02.2016 10:12 4,1 C 3,9 C 2,8 C 92 % 15 lf 1021,2 hPa 0,2 l/m 0 min 2 min 31 W/m 31,4 km/h (5 Bft) 95,74 %
04.02.2016 10:14 4,1 C 3,9 C 2,8 C 93 % 15 lf 1021,2 hPa 0,0 l/m 0 min 2 min 33 W/m 25,1 km/h (4 Bft) 95,74 %
04.02.2016 10:16 4,1 C 3,9 C 2,8 C 93 % 15 lf 1021,2 hPa 0,0 l/m 0 min 2 min 32 W/m 25,1 km/h (4 Bft) 93,62 %
04.02.2016 10:18 4,1 C 3,9 C 2,8 C 93 % 15 lf 1021,2 hPa 0,0 l/m 0 min 2 min 31 W/m 29,3 km/h (5 Bft) 95,74 %
04.02.2016 10:20 4,1 C 3,9 C 2,8 C 93 % 15 lf 1021,2 hPa 0,0 l/m 0 min 2 min 30 W/m 25,1 km/h (4 Bft) 95,65 %
04.02.2016 10:22 4,1 C 3,9 C 2,8 C 93 % 15 lf 1021,1 hPa 0,0 l/m 0 min 2 min 24 W/m 25,1 km/h (4 Bft) 91,49 %
04.02.2016 10:24 4,1 C 3,9 C 2,8 C 93 % 15 lf 1021,1 hPa 0,0 l/m 0 min 2 min 25 W/m 25,1 km/h (4 Bft) 93,62 %
04.02.2016 10:26 4,1 C 3,9 C 2,2 C 93 % 15 lf 1021,0 hPa 0,2 l/m 0 min 2 min 30 W/m 27,2 km/h (4 Bft) 91,49 %
04.02.2016 10:28 4,1 C 3,9 C 2,2 C 93 % 15 lf 1021,0 hPa 0,0 l/m 0 min 2 min 36 W/m 29,3 km/h (5 Bft) 97,87 %
04.02.2016 10:30 4,1 C 3,9 C 2,2 C 93 % 15 lf 1021,0 hPa 0,0 l/m 0 min 2 min 38 W/m 20,9 km/h (4 Bft) 100,00 %
04.02.2016 10:32 4,0 C 3,9 C 2,2 C 93 % 15 lf 1021,0 hPa 0,0 l/m 0 min 2 min 39 W/m 23,0 km/h (4 Bft) 97,83 %
04.02.2016 10:34 4,0 C 3,3 C 2,2 C 93 % 15 lf 1020,9 hPa 0,0 l/m 0 min 2 min 39 W/m 20,9 km/h (4 Bft) 97,87 %
04.02.2016 10:36 4,0 C 3,3 C 2,2 C 93 % 15 lf 1020,9 hPa 0,0 l/m 0 min 2 min 41 W/m 16,7 km/h (3 Bft) 97,87 %
04.02.2016 10:38 3,9 C 3,3 C 2,2 C 93 % 15 lf 1020,9 hPa 0,0 l/m 0 min 2 min 40 W/m 25,1 km/h (4 Bft) 95,74 %
04.02.2016 10:40 3,9 C 3,3 C 2,2 C 93 % 15 lf 1020,9 hPa 0,2 l/m 0 min 2 min 41 W/m 25,1 km/h (4 Bft) 95,74 %
04.02.2016 10:42 3,9 C 3,3 C 2,2 C 93 % 15 lf 1020,8 hPa 0,0 l/m 0 min 2 min 44 W/m 23,0 km/h (4 Bft) 97,87 %
04.02.2016 10:44 3,9 C 3,3 C 2,2 C 93 % 15 lf 1020,8 hPa 0,0 l/m 0 min 2 min 44 W/m 27,2 km/h (4 Bft) 93,48 %
04.02.2016 10:46 3,9 C 3,3 C 2,2 C 93 % 15 lf 1020,8 hPa 0,0 l/m 0 min 2 min 45 W/m 20,9 km/h (4 Bft) 97,87 %
04.02.2016 10:48 3,9 C 3,3 C 2,2 C 93 % 15 lf 1020,8 hPa 0,0 l/m 0 min 2 min 41 W/m 14,6 km/h (3 Bft) 93,62 %
04.02.2016 10:50 3,8 C 3,3 C 2,2 C 93 % 15 lf 1020,7 hPa 0,2 l/m 0 min 2 min 44 W/m 20,9 km/h (4 Bft) 97,87 %
04.02.2016 10:52 3,8 C 3,3 C 2,2 C 93 % 15 lf 1020,6 hPa 0,0 l/m 0 min 2 min 44 W/m 27,2 km/h (4 Bft) 97,87 %
04.02.2016 10:54 3,8 C 3,3 C 2,2 C 93 % 15 lf 1020,6 hPa 0,0 l/m 0 min 2 min 43 W/m 27,2 km/h (4 Bft) 95,65 %
04.02.2016 10:56 3,8 C 3,3 C 2,2 C 93 % 15 lf 1020,6 hPa 0,0 l/m 0 min 2 min 44 W/m 18,8 km/h (3 Bft) 89,36 %
04.02.2016 10:58 3,8 C 3,3 C 2,2 C 93 % 15 lf 1020,6 hPa 0,0 l/m 0 min 2 min 46 W/m 20,9 km/h (4 Bft) 95,74 %
04.02.2016 11:00 3,8 C 3,3 C 2,2 C 93 % 15 lf 1020,7 hPa 0,0 l/m 0 min 2 min 44 W/m 20,9 km/h (4 Bft) 95,74 %
04.02.2016 11:02 3,7 C 3,3 C 2,2 C 93 % 15 lf 1020,6 hPa 0,0 l/m 0 min 2 min 44 W/m 16,7 km/h (3 Bft) 95,74 %
04.02.2016 11:04 3,7 C 3,3 C 2,2 C 94 % 15 lf 1020,6 hPa 0,2 l/m 0 min 2 min 43 W/m 12,6 km/h (3 Bft) 95,74 %
04.02.2016 11:06 3,7 C 3,3 C 2,2 C 94 % 15 lf 1020,5 hPa 0,0 l/m 0 min 2 min 45 W/m 31,4 km/h (5 Bft) 95,65 %
04.02.2016 11:08 3,7 C 3,3 C 2,2 C 94 % 15 lf 1020,5 hPa 0,0 l/m 0 min 2 min 45 W/m 33,5 km/h (5 Bft) 97,87 %
04.02.2016 11:10 3,7 C 3,3 C 2,2 C 94 % 15 lf 1020,5 hPa 0,0 l/m 0 min 2 min 43 W/m 20,9 km/h (4 Bft) 97,87 %
04.02.2016 11:12 3,7 C 3,3 C 2,2 C 94 % 15 lf 1020,4 hPa 0,2 l/m 0 min 2 min 44 W/m 25,1 km/h (4 Bft) 95,74 %
04.02.2016 11:14 3,7 C 3,3 C 2,2 C 94 % 15 lf 1020,4 hPa 0,0 l/m 0 min 2 min 39 W/m 20,9 km/h (4 Bft) 95,74 %
04.02.2016 11:16 3,7 C 3,3 C 2,2 C 94 % 15 lf 1020,3 hPa 0,0 l/m 0 min 2 min 34 W/m 16,7 km/h (3 Bft) 95,74 %
04.02.2016 11:18 3,7 C 3,3 C 2,2 C 94 % 15 lf 1020,1 hPa 0,0 l/m 0 min 2 min 37 W/m 25,1 km/h (4 Bft) 97,83 %
04.02.2016 11:20 3,7 C 3,3 C 2,2 C 94 % 15 lf 1020,1 hPa 0,0 l/m 0 min 2 min 41 W/m 14,6 km/h (3 Bft) 95,74 %
04.02.2016 11:22 3,7 C 3,3 C 2,2 C 94 % 15 lf 1020,0 hPa 0,2 l/m 0 min 2 min 41 W/m 18,8 km/h (3 Bft) 93,62 %
04.02.2016 11:24 3,7 C 3,3 C 2,2 C 94 % 15 lf 1020,0 hPa 0,0 l/m 0 min 2 min 39 W/m 20,9 km/h (4 Bft) 97,87 %
04.02.2016 11:26 3,7 C 3,3 C 2,2 C 94 % 15 lf 1020,0 hPa 0,0 l/m 0 min 2 min 38 W/m 20,9 km/h (4 Bft) 97,87 %
04.02.2016 11:28 3,7 C 3,3 C 2,2 C 94 % 15 lf 1019,9 hPa 0,0 l/m 0 min 2 min 38 W/m 20,9 km/h (4 Bft) 93,62 %
04.02.2016 11:30 3,7 C 3,3 C 2,2 C 94 % 15 lf 1019,9 hPa 0,2 l/m 0 min 2 min 39 W/m 14,6 km/h (3 Bft) 93,48 %
04.02.2016 11:32 3,7 C 3,3 C 2,2 C 94 % 15 lf 1019,9 hPa 0,0 l/m 0 min 2 min 38 W/m 18,8 km/h (3 Bft) 95,74 %
04.02.2016 11:34 3,7 C 3,3 C 2,2 C 94 % 15 lf 1019,8 hPa 0,0 l/m 0 min 2 min 38 W/m 16,7 km/h (3 Bft) 97,87 %
04.02.2016 11:36 3,7 C 3,3 C 2,2 C 94 % 15 lf 1019,8 hPa 0,0 l/m 0 min 2 min 37 W/m 20,9 km/h (4 Bft) 95,74 %
04.02.2016 11:38 3,7 C 3,3 C 2,2 C 94 % 15 lf 1019,7 hPa 0,0 l/m 0 min 2 min 43 W/m 14,6 km/h (3 Bft) 100,00 %
04.02.2016 11:40 3,7 C 3,3 C 2,2 C 94 % 15 lf 1019,6 hPa 0,2 l/m 0 min 2 min 42 W/m 18,8 km/h (3 Bft) 97,87 %
04.02.2016 11:42 3,7 C 3,3 C 2,2 C 94 % 15 lf 1019,5 hPa 0,0 l/m 0 min 2 min 48 W/m 20,9 km/h (4 Bft) 100,00 %
04.02.2016 11:44 3,6 C 3,3 C 2,2 C 94 % 15 lf 1019,5 hPa 0,0 l/m 0 min 2 min 54 W/m 33,5 km/h (5 Bft) 100,00 %
04.02.2016 11:46 3,6 C 3,3 C 2,2 C 94 % 15 lf 1019,5 hPa 0,0 l/m 0 min 2 min 56 W/m 20,9 km/h (4 Bft) 100,00 %
04.02.2016 11:48 3,6 C 3,3 C 2,2 C 94 % 15 lf 1019,5 hPa 0,2 l/m 0 min 2 min 56 W/m 20,9 km/h (4 Bft) 93,62 %
04.02.2016 11:50 3,6 C 3,3 C 2,2 C 94 % 15 lf 1019,4 hPa 0,0 l/m 0 min 2 min 51 W/m 27,2 km/h (4 Bft) 100,00 %
04.02.2016 11:52 3,6 C 3,3 C 2,2 C 94 % 15 lf 1019,3 hPa 0,0 l/m 0 min 2 min 50 W/m 20,9 km/h (4 Bft) 97,87 %
04.02.2016 11:54 3,6 C 3,3 C 2,8 C 95 % 15 lf 1019,3 hPa 0,0 l/m 0 min 2 min 52 W/m 18,8 km/h (3 Bft) 100,00 %
04.02.2016 11:56 3,6 C 3,3 C 2,2 C 95 % 15 lf 1019,2 hPa 0,0 l/m 0 min 2 min 50 W/m 23,0 km/h (4 Bft) 100,00 %
04.02.2016 11:58 3,6 C 3,3 C 2,2 C 95 % 15 lf 1019,1 hPa 0,2 l/m 0 min 2 min 52 W/m 23,0 km/h (4 Bft) 97,87 %
04.02.2016 12:00 3,6 C 3,3 C 2,2 C 95 % 15 lf 1019,1 hPa 0,0 l/m 0 min 2 min 47 W/m 16,7 km/h (3 Bft) 97,87 %
04.02.2016 12:02 3,6 C 3,3 C 2,2 C 95 % 15 lf 1019,1 hPa 0,0 l/m 0 min 2 min 49 W/m 18,8 km/h (3 Bft) 95,74 %
04.02.2016 12:04 3,6 C 3,3 C 2,2 C 95 % 15 lf 1019,0 hPa 0,0 l/m 0 min 2 min 47 W/m 23,0 km/h (4 Bft) 97,92 %
04.02.2016 12:06 3,6 C 3,3 C 2,2 C 95 % 15 lf 1019,0 hPa 0,0 l/m 0 min 2 min 48 W/m 20,9 km/h (4 Bft) 97,87 %
04.02.2016 12:08 3,5 C 3,3 C 2,2 C 95 % 15 lf 1018,9 hPa 0,2 l/m 0 min 2 min 51 W/m 20,9 km/h (4 Bft) 97,87 %
04.02.2016 12:10 3,6 C 3,3 C 2,2 C 95 % 15 lf 1018,8 hPa 0,0 l/m 0 min 2 min 53 W/m 16,7 km/h (3 Bft) 93,62 %
04.02.2016 12:12 3,5 C 3,3 C 2,2 C 95 % 15 lf 1018,7 hPa 0,0 l/m 0 min 2 min 52 W/m 16,7 km/h (3 Bft) 95,74 %
04.02.2016 12:14 3,6 C 3,3 C 2,2 C 95 % 15 lf 1018,6 hPa 0,0 l/m 0 min 2 min 49 W/m 23,0 km/h (4 Bft) 97,87 %
04.02.2016 12:16 3,5 C 3,3 C 2,2 C 95 % 15 lf 1018,7 hPa 0,0 l/m 0 min 2 min 45 W/m 27,2 km/h (4 Bft) 93,48 %
04.02.2016 12:18 3,5 C 3,3 C 2,2 C 95 % 15 lf 1018,6 hPa 0,0 l/m 0 min 2 min 41 W/m 27,2 km/h (4 Bft) 93,62 %
04.02.2016 12:20 3,5 C 3,3 C 2,2 C 95 % 15 lf 1018,5 hPa 0,0 l/m 0 min 2 min 49 W/m 23,0 km/h (4 Bft) 95,74 %
04.02.2016 12:22 3,5 C 3,3 C 2,2 C 95 % 15 lf 1018,5 hPa 0,2 l/m 0 min 2 min 52 W/m 20,9 km/h (4 Bft) 97,87 %
04.02.2016 12:24 3,5 C 3,3 C 2,2 C 95 % 15 lf 1018,5 hPa 0,0 l/m 0 min 2 min 46 W/m 20,9 km/h (4 Bft) 93,62 %
04.02.2016 12:26 3,5 C 3,3 C 2,2 C 95 % 15 lf 1018,4 hPa 0,0 l/m 0 min 2 min 45 W/m 27,2 km/h (4 Bft) 95,74 %
04.02.2016 12:28 3,6 C 3,3 C 2,2 C 95 % 15 lf 1018,3 hPa 0,0 l/m 0 min 2 min 44 W/m 27,2 km/h (4 Bft) 95,65 %
04.02.2016 12:30 3,6 C 3,3 C 2,2 C 95 % 15 lf 1018,3 hPa 0,0 l/m 0 min 2 min 40 W/m 23,0 km/h (4 Bft) 93,62 %
04.02.2016 12:32 3,6 C 3,3 C 2,2 C 95 % 15 lf 1018,4 hPa 0,0 l/m 0 min 2 min 38 W/m 20,9 km/h (4 Bft) 93,62 %
04.02.2016 12:34 3,6 C 3,3 C 2,8 C 95 % 15 lf 1018,3 hPa 0,0 l/m 0 min 2 min 36 W/m 20,9 km/h (4 Bft) 91,49 %
04.02.2016 12:36 3,6 C 3,3 C 2,8 C 95 % 15 lf 1018,2 hPa 0,0 l/m 0 min 2 min 38 W/m 16,7 km/h (3 Bft) 93,62 %
04.02.2016 12:38 3,6 C 3,3 C 2,8 C 95 % 15 lf 1018,2 hPa 0,0 l/m 0 min 2 min 33 W/m 12,6 km/h (3 Bft) 95,74 %
04.02.2016 12:40 3,6 C 3,3 C 2,8 C 95 % 15 lf 1018,0 hPa 0,0 l/m 0 min 2 min 33 W/m 14,6 km/h (3 Bft) 91,30 %
04.02.2016 12:42 3,6 C 3,9 C 2,8 C 95 % 15 lf 1018,0 hPa 0,2 l/m 0 min 2 min 31 W/m 8,4 km/h (2 Bft) 93,62 %
04.02.2016 12:44 3,6 C 3,9 C 2,8 C 95 % 15 lf 1018,0 hPa 0,0 l/m 0 min 2 min 31 W/m 10,5 km/h (2 Bft) 91,49 %
04.02.2016 12:46 3,6 C 3,9 C 2,8 C 95 % 15 lf 1017,9 hPa 0,0 l/m 0 min 2 min 35 W/m 14,6 km/h (3 Bft) 95,74 %
04.02.2016 12:48 3,7 C 3,9 C 2,8 C 95 % 15 lf 1017,8 hPa 0,0 l/m 0 min 2 min 32 W/m 18,8 km/h (3 Bft) 93,62 %
04.02.2016 12:50 3,7 C 3,9 C 2,8 C 95 % 15 lf 1017,8 hPa 0,0 l/m 0 min 2 min 31 W/m 16,7 km/h (3 Bft) 95,74 %
04.02.2016 12:52 3,7 C 3,9 C 2,8 C 95 % 15 lf 1017,7 hPa 0,0 l/m 0 min 2 min 33 W/m 18,8 km/h (3 Bft) 95,65 %
04.02.2016 12:54 3,7 C 3,9 C 2,8 C 95 % 15 lf 1017,6 hPa 0,0 l/m 0 min 2 min 33 W/m 14,6 km/h (3 Bft) 97,87 %
04.02.2016 12:56 3,7 C 3,9 C 2,8 C 95 % 15 lf 1017,5 hPa 0,0 l/m 0 min 2 min 33 W/m 20,9 km/h (4 Bft) 91,49 %
04.02.2016 12:58 3,7 C 3,9 C 2,8 C 95 % 15 lf 1017,4 hPa 0,0 l/m 0 min 2 min 35 W/m 16,7 km/h (3 Bft) 95,74 %
04.02.2016 13:00 3,8 C 3,9 C 2,8 C 95 % 15 lf 1017,4 hPa 0,0 l/m 0 min 2 min 35 W/m 29,3 km/h (5 Bft) 91,49 %
04.02.2016 13:02 3,8 C 3,9 C 2,8 C 96 % 15 lf 1017,4 hPa 0,0 l/m 0 min 2 min 36 W/m 18,8 km/h (3 Bft) 91,30 %
04.02.2016 13:04 3,8 C 3,9 C 2,8 C 96 % 15 lf 1017,4 hPa 0,0 l/m 0 min 2 min 33 W/m 25,1 km/h (4 Bft) 95,74 %
04.02.2016 13:06 3,9 C 3,9 C 2,8 C 96 % 15 lf 1017,4 hPa 0,0 l/m 0 min 2 min 34 W/m 23,0 km/h (4 Bft) 95,74 %
04.02.2016 13:08 3,9 C 3,9 C 2,8 C 96 % 15 lf 1017,4 hPa 0,0 l/m 0 min 2 min 35 W/m 18,8 km/h (3 Bft) 93,62 %
04.02.2016 13:10 3,9 C 3,9 C 2,8 C 96 % 15 lf 1017,2 hPa 0,0 l/m 0 min 2 min 44 W/m 27,2 km/h (4 Bft) 93,62 %
04.02.2016 13:12 4,0 C 4,4 C 2,8 C 96 % 15 lf 1017,3 hPa 0,0 l/m 0 min 2 min 40 W/m 29,3 km/h (5 Bft) 95,74 %
04.02.2016 13:14 4,1 C 4,4 C 3,3 C 96 % 15 lf 1017,2 hPa 0,0 l/m 0 min 2 min 39 W/m 29,3 km/h (5 Bft) 93,48 %
04.02.2016 13:16 4,1 C 4,4 C 3,3 C 96 % 15 lf 1017,3 hPa 0,0 l/m 0 min 2 min 33 W/m 18,8 km/h (3 Bft) 93,62 %
04.02.2016 13:18 4,1 C 4,4 C 3,3 C 96 % 15 lf 1017,3 hPa 0,0 l/m 0 min 2 min 32 W/m 27,2 km/h (4 Bft) 93,62 %
04.02.2016 13:20 4,2 C 4,4 C 3,3 C 96 % 15 lf 1017,3 hPa 0,0 l/m 0 min 2 min 33 W/m 23,0 km/h (4 Bft) 95,74 %
04.02.2016 13:22 4,2 C 4,4 C 3,3 C 96 % 15 lf 1017,1 hPa 0,0 l/m 0 min 0 min 27 W/m 23,0 km/h (4 Bft) 95,74 %
04.02.2016 13:24 4,2 C 4,4 C 3,3 C 96 % 15 lf 1017,2 hPa 0,0 l/m 0 min 2 min 25 W/m 25,1 km/h (4 Bft) 93,62 %
04.02.2016 13:26 4,3 C 4,4 C 3,3 C 96 % 15 lf 1017,1 hPa 0,0 l/m 0 min 2 min 27 W/m 31,4 km/h (5 Bft) 93,48 %
04.02.2016 13:28 4,3 C 4,4 C 3,3 C 96 % 15 lf 1017,2 hPa 0,0 l/m 0 min 0 min 35 W/m 35,6 km/h (5 Bft) 95,74 %
04.02.2016 13:30 4,4 C 4,4 C 3,3 C 96 % 15 lf 1017,1 hPa 0,0 l/m 0 min 0 min 44 W/m 37,7 km/h (5 Bft) 95,74 %
04.02.2016 13:32 4,4 C 4,4 C 3,3 C 96 % 15 lf 1017,0 hPa 0,0 l/m 0 min 0 min 49 W/m 33,5 km/h (5 Bft) 97,87 %
04.02.2016 13:34 4,5 C 5,0 C 3,3 C 96 % 15 lf 1017,0 hPa 0,0 l/m 0 min 0 min 46 W/m 27,2 km/h (4 Bft) 95,74 %
04.02.2016 13:36 4,6 C 5,0 C 3,3 C 96 % 15 lf 1017,1 hPa 0,0 l/m 0 min 0 min 47 W/m 27,2 km/h (4 Bft) 95,74 %
04.02.2016 13:38 4,6 C 5,0 C 3,3 C 96 % 15 lf 1017,2 hPa 0,0 l/m 0 min 0 min 40 W/m 23,0 km/h (4 Bft) 97,83 %
04.02.2016 13:40 4,6 C 5,0 C 3,9 C 96 % 15 lf 1017,2 hPa 0,0 l/m 0 min 0 min 48 W/m 23,0 km/h (4 Bft) 97,87 %
04.02.2016 13:42 4,7 C 5,0 C 3,9 C 96 % 15 lf 1017,1 hPa 0,0 l/m 0 min 0 min 79 W/m 23,0 km/h (4 Bft) 95,74 %
04.02.2016 13:44 4,7 C 5,0 C 3,9 C 97 % 15 lf 1017,0 hPa 0,0 l/m 0 min 0 min 110 W/m 29,3 km/h (5 Bft) 97,87 %
04.02.2016 13:46 4,8 C 5,6 C 3,9 C 97 % 15 lf 1017,0 hPa 0,0 l/m 0 min 0 min 101 W/m 31,4 km/h (5 Bft) 95,74 %
04.02.2016 13:48 4,9 C 5,6 C 3,9 C 97 % 15 lf 1016,9 hPa 0,0 l/m 0 min 0 min 93 W/m 31,4 km/h (5 Bft) 95,74 %
04.02.2016 13:50 4,9 C 5,6 C 3,9 C 97 % 15 lf 1016,9 hPa 0,0 l/m 0 min 0 min 92 W/m 29,3 km/h (5 Bft) 97,83 %
04.02.2016 13:52 5,0 C 5,6 C 3,9 C 97 % 15 lf 1016,8 hPa 0,0 l/m 0 min 0 min 80 W/m 23,0 km/h (4 Bft) 97,87 %
04.02.2016 13:54 5,1 C 5,6 C 3,9 C 97 % 15 lf 1016,8 hPa 0,0 l/m 0 min 0 min 67 W/m 23,0 km/h (4 Bft) 93,62 %
04.02.2016 13:56 5,1 C 5,6 C 3,9 C 97 % 15 lf 1017,0 hPa 0,0 l/m 0 min 0 min 63 W/m 25,1 km/h (4 Bft) 97,87 %
04.02.2016 13:58 5,1 C 5,6 C 4,4 C 97 % 15 lf 1016,9 hPa 0,0 l/m 0 min 0 min 64 W/m 25,1 km/h (4 Bft) 97,92 %
04.02.2016 14:00 5,2 C 5,6 C 4,4 C 97 % 15 lf 1017,0 hPa 0,0 l/m 0 min 0 min 79 W/m 27,2 km/h (4 Bft) 100,00 %
04.02.2016 14:02 5,2 C 5,6 C 4,4 C 97 % 15 lf 1016,9 hPa 0,0 l/m 0 min 0 min 113 W/m 25,1 km/h (4 Bft) 97,87 %
04.02.2016 14:04 5,3 C 5,6 C 4,4 C 97 % 15 lf 1016,9 hPa 0,0 l/m 0 min 0 min 110 W/m 31,4 km/h (5 Bft) 97,87 %
04.02.2016 14:06 5,3 C 5,6 C 4,4 C 97 % 15 lf 1016,9 hPa 0,0 l/m 0 min 0 min 93 W/m 27,2 km/h (4 Bft) 95,74 %
04.02.2016 14:08 5,3 C 5,6 C 4,4 C 97 % 15 lf 1016,8 hPa 0,0 l/m 0 min 0 min 87 W/m 27,2 km/h (4 Bft) 97,87 %
04.02.2016 14:10 5,4 C 5,6 C 4,4 C 97 % 15 lf 1016,8 hPa 0,0 l/m 0 min 0 min 68 W/m 29,3 km/h (5 Bft) 97,87 %
04.02.2016 14:12 5,4 C 5,6 C 4,4 C 97 % 15 lf 1016,8 hPa 0,0 l/m 0 min 0 min 34 W/m 31,4 km/h (5 Bft) 97,83 %
04.02.2016 14:14 5,4 C 5,6 C 4,4 C 97 % 15 lf 1016,8 hPa 0,0 l/m 0 min 0 min 30 W/m 23,0 km/h (4 Bft) 100,00 %
04.02.2016 14:16 5,4 C 5,6 C 4,4 C 97 % 15 lf 1016,9 hPa 0,0 l/m 0 min 0 min 54 W/m 27,2 km/h (4 Bft) 97,87 %
04.02.2016 14:18 5,5 C 5,6 C 4,4 C 97 % 15 lf 1017,0 hPa 0,0 l/m 0 min 2 min 57 W/m 29,3 km/h (5 Bft) 97,87 %
04.02.2016 14:20 5,5 C 5,6 C 4,4 C 97 % 15 lf 1016,8 hPa 0,0 l/m 0 min 0 min 56 W/m 20,9 km/h (4 Bft) 100,00 %
04.02.2016 14:22 5,5 C 5,6 C 4,4 C 97 % 15 lf 1016,8 hPa 0,0 l/m 0 min 0 min 64 W/m 25,1 km/h (4 Bft) 91,49 %
04.02.2016 14:24 5,6 C 6,1 C 4,4 C 97 % 15 lf 1016,8 hPa 0,0 l/m 0 min 0 min 66 W/m 20,9 km/h (4 Bft) 100,00 %
04.02.2016 14:26 5,6 C 6,1 C 4,4 C 97 % 15 lf 1016,8 hPa 0,0 l/m 0 min 0 min 99 W/m 20,9 km/h (4 Bft) 100,00 %
04.02.2016 14:28 5,7 C 6,1 C 5,0 C 97 % 15 lf 1016,9 hPa 0,0 l/m 0 min 0 min 104 W/m 25,1 km/h (4 Bft) 97,87 %
04.02.2016 14:30 5,7 C 6,1 C 5,0 C 97 % 15 lf 1016,9 hPa 0,0 l/m 0 min 0 min 82 W/m 31,4 km/h (5 Bft) 100,00 %
04.02.2016 14:32 5,7 C 6,1 C 5,0 C 97 % 15 lf 1017,0 hPa 0,0 l/m 0 min 0 min 65 W/m 18,8 km/h (3 Bft) 100,00 %
04.02.2016 14:34 5,8 C 6,1 C 5,0 C 97 % 15 lf 1017,0 hPa 0,0 l/m 0 min 0 min 67 W/m 14,6 km/h (3 Bft) 100,00 %
04.02.2016 14:36 5,8 C 6,1 C 5,0 C 97 % 15 lf 1017,0 hPa 0,0 l/m 0 min 0 min 52 W/m 18,8 km/h (3 Bft) 100,00 %
04.02.2016 14:38 5,8 C 6,1 C 5,0 C 97 % 15 lf 1017,0 hPa 0,0 l/m 0 min 0 min 35 W/m 18,8 km/h (3 Bft) 95,74 %
04.02.2016 14:40 5,9 C 6,1 C 4,4 C 97 % 15 lf 1016,9 hPa 0,0 l/m 0 min 0 min 31 W/m 14,6 km/h (3 Bft) 97,87 %
04.02.2016 14:42 5,9 C 6,1 C 5,0 C 97 % 15 lf 1017,0 hPa 0,0 l/m 0 min 2 min 35 W/m 18,8 km/h (3 Bft) 100,00 %
04.02.2016 14:44 5,9 C 6,1 C 5,0 C 97 % 15 lf 1017,0 hPa 0,0 l/m 0 min 0 min 38 W/m 20,9 km/h (4 Bft) 100,00 %
04.02.2016 14:46 5,9 C 6,1 C 5,0 C 97 % 15 lf 1017,1 hPa 0,0 l/m 0 min 0 min 28 W/m 14,6 km/h (3 Bft) 97,87 %
04.02.2016 14:48 5,9 C 6,1 C 5,0 C 97 % 15 lf 1017,1 hPa 0,0 l/m 0 min 2 min 28 W/m 14,6 km/h (3 Bft) 93,62 %
04.02.2016 14:50 5,9 C 6,1 C 5,0 C 97 % 15 lf 1017,0 hPa 0,0 l/m 0 min 2 min 34 W/m 18,8 km/h (3 Bft) 97,87 %
04.02.2016 14:52 5,9 C 6,1 C 5,0 C 97 % 15 lf 1017,0 hPa 0,0 l/m 0 min 2 min 30 W/m 20,9 km/h (4 Bft) 97,83 %
04.02.2016 14:54 5,9 C 6,1 C 5,0 C 97 % 15 lf 1017,0 hPa 0,0 l/m 0 min 2 min 27 W/m 16,7 km/h (3 Bft) 95,74 %
04.02.2016 14:56 6,0 C 6,1 C 5,0 C 97 % 15 lf 1017,0 hPa 0,0 l/m 0 min 2 min 26 W/m 16,7 km/h (3 Bft) 95,74 %
04.02.2016 14:58 6,0 C 6,1 C 5,0 C 97 % 15 lf 1017,0 hPa 0,2 l/m 0 min 2 min 35 W/m 14,6 km/h (3 Bft) 95,74 %
04.02.2016 15:00 6,0 C 6,1 C 5,0 C 97 % 15 lf 1017,0 hPa 0,0 l/m 0 min 0 min 39 W/m 12,6 km/h (3 Bft) 95,74 %
04.02.2016 15:02 6,0 C 6,1 C 5,0 C 97 % 15 lf 1017,1 hPa 0,0 l/m 0 min 0 min 50 W/m 16,7 km/h (3 Bft) 95,74 %
04.02.2016 15:04 6,1 C 6,1 C 5,0 C 97 % 15 lf 1017,1 hPa 0,0 l/m 0 min 0 min 45 W/m 12,6 km/h (3 Bft) 95,65 %
04.02.2016 15:06 6,1 C 6,1 C 5,0 C 98 % 15 lf 1017,1 hPa 0,0 l/m 0 min 0 min 56 W/m 16,7 km/h (3 Bft) 93,62 %
04.02.2016 15:08 6,1 C 6,1 C 5,0 C 98 % 15 lf 1017,2 hPa 0,0 l/m 0 min 0 min 45 W/m 25,1 km/h (4 Bft) 91,49 %
04.02.2016 15:10 6,1 C 6,7 C 5,0 C 98 % 15 lf 1017,2 hPa 0,0 l/m 0 min 0 min 35 W/m 18,8 km/h (3 Bft) 95,74 %
04.02.2016 15:12 6,2 C 6,7 C 5,0 C 98 % 15 lf 1017,2 hPa 0,0 l/m 0 min 0 min 34 W/m 23,0 km/h (4 Bft) 91,49 %
04.02.2016 15:14 6,2 C 6,7 C 5,0 C 97 % 15 lf 1017,1 hPa 0,0 l/m 0 min 0 min 32 W/m 20,9 km/h (4 Bft) 95,74 %
04.02.2016 15:16 6,2 C 6,7 C 5,0 C 97 % 15 lf 1017,2 hPa 0,0 l/m 0 min 0 min 33 W/m 27,2 km/h (4 Bft) 95,65 %
04.02.2016 15:18 6,2 C 6,7 C 5,0 C 97 % 15 lf 1017,3 hPa 0,0 l/m 0 min 0 min 36 W/m 18,8 km/h (3 Bft) 93,62 %
04.02.2016 15:20 6,2 C 6,7 C 5,0 C 97 % 15 lf 1017,3 hPa 0,0 l/m 0 min 0 min 39 W/m 18,8 km/h (3 Bft) 97,87 %
04.02.2016 15:22 6,3 C 6,7 C 5,0 C 97 % 15 lf 1017,3 hPa 0,0 l/m 0 min 0 min 53 W/m 23,0 km/h (4 Bft) 91,49 %
04.02.2016 15:24 6,3 C 6,7 C 5,0 C 97 % 15 lf 1017,3 hPa 0,0 l/m 0 min 0 min 53 W/m 16,7 km/h (3 Bft) 97,87 %
04.02.2016 15:26 6,3 C 6,7 C 5,0 C 98 % 15 lf 1017,4 hPa 0,0 l/m 0 min 0 min 33 W/m 16,7 km/h (3 Bft) 97,87 %
04.02.2016 15:28 6,4 C 6,7 C 5,0 C 98 % 15 lf 1017,4 hPa 0,0 l/m 0 min 0 min 26 W/m 14,6 km/h (3 Bft) 97,83 %
04.02.2016 15:30 6,4 C 6,7 C 5,0 C 98 % 15 lf 1017,4 hPa 0,0 l/m 0 min 0 min 24 W/m 14,6 km/h (3 Bft) 93,62 %
04.02.2016 15:32 6,4 C 6,7 C 5,0 C 98 % 15 lf 1017,4 hPa 0,0 l/m 0 min 0 min 31 W/m 18,8 km/h (3 Bft) 95,74 %
04.02.2016 15:34 6,4 C 6,7 C 5,0 C 98 % 15 lf 1017,5 hPa 0,0 l/m 0 min 0 min 31 W/m 18,8 km/h (3 Bft) 97,87 %
04.02.2016 15:36 6,4 C 6,7 C 5,0 C 98 % 15 lf 1017,5 hPa 0,0 l/m 0 min 0 min 32 W/m 23,0 km/h (4 Bft) 97,87 %
04.02.2016 15:38 6,4 C 6,7 C 5,0 C 98 % 15 lf 1017,6 hPa 0,0 l/m 0 min 0 min 38 W/m 16,7 km/h (3 Bft) 97,87 %
04.02.2016 15:40 6,4 C 6,7 C 5,0 C 98 % 15 lf 1017,6 hPa 0,0 l/m 0 min 0 min 41 W/m 20,9 km/h (4 Bft) 97,83 %
04.02.2016 15:42 6,4 C 6,7 C 5,6 C 98 % 15 lf 1017,6 hPa 0,0 l/m 0 min 0 min 59 W/m 23,0 km/h (4 Bft) 100,00 %
04.02.2016 15:44 6,4 C 6,7 C 5,6 C 98 % 15 lf 1017,6 hPa 0,0 l/m 0 min 0 min 80 W/m 18,8 km/h (3 Bft) 100,00 %
04.02.2016 15:46 6,5 C 7,2 C 5,6 C 98 % 15 lf 1017,6 hPa 0,0 l/m 0 min 0 min 88 W/m 16,7 km/h (3 Bft) 100,00 %
04.02.2016 15:48 6,6 C 7,2 C 5,6 C 98 % 15 lf 1017,6 hPa 0,0 l/m 2 min 0 min 105 W/m 16,7 km/h (3 Bft) 100,00 %
04.02.2016 15:50 6,6 C 7,2 C 5,6 C 98 % 15 lf 1017,7 hPa 0,0 l/m 0 min 0 min 101 W/m 25,1 km/h (4 Bft) 100,00 %
04.02.2016 15:52 6,6 C 7,2 C 5,6 C 98 % 15 lf 1017,7 hPa 0,0 l/m 0 min 0 min 80 W/m 12,6 km/h (3 Bft) 97,83 %
04.02.2016 15:54 6,6 C 7,2 C 5,6 C 98 % 15 lf 1017,7 hPa 0,0 l/m 0 min 0 min 68 W/m 18,8 km/h (3 Bft) 100,00 %
04.02.2016 15:56 6,7 C 7,2 C 5,6 C 98 % 15 lf 1017,7 hPa 0,0 l/m 0 min 0 min 53 W/m 20,9 km/h (4 Bft) 97,87 %
04.02.2016 15:58 6,7 C 7,2 C 5,6 C 98 % 15 lf 1017,7 hPa 0,0 l/m 0 min 0 min 50 W/m 16,7 km/h (3 Bft) 100,00 %
04.02.2016 16:00 6,7 C 7,2 C 5,6 C 98 % 15 lf 1017,9 hPa 0,0 l/m 0 min 0 min 64 W/m 20,9 km/h (4 Bft) 100,00 %
04.02.2016 16:02 6,7 C 7,2 C 5,6 C 98 % 15 lf 1017,9 hPa 0,0 l/m 0 min 0 min 59 W/m 25,1 km/h (4 Bft) 100,00 %
04.02.2016 16:04 6,8 C 7,2 C 5,6 C 98 % 15 lf 1017,9 hPa 0,0 l/m 0 min 2 min 55 W/m 18,8 km/h (3 Bft) 95,65 %
04.02.2016 16:06 6,8 C 7,2 C 5,6 C 98 % 15 lf 1017,9 hPa 0,0 l/m 0 min 2 min 42 W/m 20,9 km/h (4 Bft) 97,87 %
04.02.2016 16:08 6,8 C 7,2 C 5,6 C 98 % 15 lf 1017,9 hPa 0,0 l/m 0 min 2 min 40 W/m 20,9 km/h (4 Bft) 95,74 %
04.02.2016 16:10 6,8 C 7,2 C 5,6 C 98 % 15 lf 1017,9 hPa 0,0 l/m 0 min 2 min 40 W/m 27,2 km/h (4 Bft) 93,62 %
04.02.2016 16:12 6,8 C 6,7 C 5,6 C 98 % 15 lf 1018,0 hPa 0,0 l/m 0 min 2 min 35 W/m 25,1 km/h (4 Bft) 93,62 %
04.02.2016 16:14 6,8 C 6,7 C 5,6 C 98 % 15 lf 1018,0 hPa 0,0 l/m 0 min 2 min 35 W/m 31,4 km/h (5 Bft) 93,62 %
04.02.2016 16:16 6,8 C 6,7 C 5,6 C 98 % 15 lf 1018,0 hPa 0,0 l/m 0 min 0 min 42 W/m 14,6 km/h (3 Bft) 95,65 %
04.02.2016 16:18 6,8 C 6,7 C 5,6 C 98 % 15 lf 1018,0 hPa 0,0 l/m 0 min 0 min 50 W/m 27,2 km/h (4 Bft) 93,62 %
04.02.2016 16:20 6,8 C 6,7 C 5,6 C 98 % 15 lf 1018,0 hPa 0,0 l/m 0 min 0 min 55 W/m 31,4 km/h (5 Bft) 95,74 %
04.02.2016 16:22 6,8 C 7,2 C 5,6 C 98 % 15 lf 1018,1 hPa 0,0 l/m 0 min 0 min 51 W/m 25,1 km/h (4 Bft) 93,62 %
04.02.2016 16:24 6,8 C 6,7 C 5,6 C 98 % 15 lf 1018,2 hPa 0,0 l/m 0 min 0 min 41 W/m 25,1 km/h (4 Bft) 95,74 %
04.02.2016 16:26 6,8 C 6,7 C 5,6 C 98 % 15 lf 1018,1 hPa 0,0 l/m 0 min 0 min 40 W/m 25,1 km/h (4 Bft) 93,62 %
04.02.2016 16:28 6,8 C 6,7 C 5,6 C 98 % 15 lf 1018,2 hPa 0,0 l/m 0 min 0 min 36 W/m 27,2 km/h (4 Bft) 91,30 %
04.02.2016 16:30 6,8 C 6,7 C 5,0 C 98 % 15 lf 1018,2 hPa 0,0 l/m 0 min 0 min 36 W/m 25,1 km/h (4 Bft) 93,62 %
04.02.2016 16:32 6,8 C 6,7 C 5,0 C 98 % 15 lf 1018,2 hPa 0,0 l/m 0 min 0 min 36 W/m 18,8 km/h (3 Bft) 93,62 %
04.02.2016 16:34 6,8 C 6,7 C 5,0 C 98 % 15 lf 1018,3 hPa 0,0 l/m 0 min 0 min 33 W/m 16,7 km/h (3 Bft) 95,74 %
04.02.2016 16:36 6,8 C 6,7 C 5,0 C 98 % 15 lf 1018,4 hPa 0,0 l/m 0 min 0 min 31 W/m 29,3 km/h (5 Bft) 95,74 %
04.02.2016 16:38 6,8 C 6,7 C 5,0 C 98 % 15 lf 1018,4 hPa 0,0 l/m 0 min 0 min 28 W/m 18,8 km/h (3 Bft) 93,62 %
04.02.2016 16:40 6,8 C 6,7 C 5,0 C 98 % 15 lf 1018,4 hPa 0,0 l/m 0 min 0 min 24 W/m 25,1 km/h (4 Bft) 95,65 %
04.02.2016 16:42 6,8 C 6,7 C 5,0 C 98 % 15 lf 1018,4 hPa 0,0 l/m 0 min 0 min 20 W/m 27,2 km/h (4 Bft) 93,62 %
04.02.2016 16:44 6,8 C 6,7 C 5,0 C 98 % 15 lf 1018,5 hPa 0,0 l/m 0 min 0 min 19 W/m 12,6 km/h (3 Bft) 91,49 %
04.02.2016 16:46 6,8 C 6,7 C 5,0 C 98 % 15 lf 1018,5 hPa 0,0 l/m 0 min 0 min 20 W/m 23,0 km/h (4 Bft) 91,49 %
04.02.2016 16:48 6,8 C 6,7 C 5,0 C 98 % 15 lf 1018,5 hPa 0,0 l/m 0 min 0 min 23 W/m 14,6 km/h (3 Bft) 93,62 %
04.02.2016 16:50 6,7 C 6,7 C 5,0 C 98 % 15 lf 1018,6 hPa 0,0 l/m 0 min 0 min 28 W/m 20,9 km/h (4 Bft) 91,30 %
04.02.2016 16:52 6,8 C 6,7 C 5,0 C 98 % 15 lf 1018,6 hPa 0,0 l/m 0 min 0 min 26 W/m 20,9 km/h (4 Bft) 95,74 %
04.02.2016 16:54 6,8 C 6,7 C 5,0 C 98 % 15 lf 1018,7 hPa 0,0 l/m 0 min 0 min 17 W/m 20,9 km/h (4 Bft) 91,49 %
04.02.2016 16:56 6,8 C 6,7 C 5,0 C 98 % 15 lf 1018,7 hPa 0,0 l/m 0 min 0 min 12 W/m 23,0 km/h (4 Bft) 87,23 %
04.02.2016 16:58 6,8 C 6,7 C 5,0 C 98 % 15 lf 1018,7 hPa 0,0 l/m 0 min 0 min 10 W/m 23,0 km/h (4 Bft) 93,62 %
04.02.2016 17:00 6,8 C 6,7 C 5,0 C 98 % 15 lf 1018,8 hPa 0,0 l/m 0 min 0 min 7 W/m 12,6 km/h (3 Bft) 93,62 %
04.02.2016 17:02 6,8 C 6,7 C 5,0 C 98 % 15 lf 1018,9 hPa 0,0 l/m 0 min 0 min 5 W/m 20,9 km/h (4 Bft) 95,65 %
04.02.2016 17:04 6,8 C 6,7 C 5,0 C 97 % 15 lf 1018,9 hPa 0,0 l/m 0 min 0 min 5 W/m 16,7 km/h (3 Bft) 93,62 %
04.02.2016 17:06 6,8 C 6,7 C 5,0 C 97 % 15 lf 1019,1 hPa 0,0 l/m 0 min 0 min 5 W/m 20,9 km/h (4 Bft) 95,74 %
04.02.2016 17:08 6,8 C 6,7 C 5,0 C 97 % 15 lf 1019,1 hPa 0,0 l/m 0 min 2 min 1 W/m 18,8 km/h (3 Bft) 94,29 %
04.02.2016 17:10 6,8 C 6,7 C 5,0 C 97 % 15 lf 1019,1 hPa 0,0 l/m 0 min 2 min 2 W/m 20,9 km/h (4 Bft) 95,74 %
04.02.2016 17:12 6,8 C 6,7 C 5,0 C 97 % 15 lf 1019,2 hPa 0,0 l/m 0 min 2 min 0 W/m 31,4 km/h (5 Bft) 93,62 %
04.02.2016 17:14 6,8 C 6,7 C 5,0 C 97 % 15 lf 1019,2 hPa 0,0 l/m 0 min 2 min 0 W/m 18,8 km/h (3 Bft) 97,87 %
04.02.2016 17:16 6,8 C 6,7 C 5,0 C 97 % 15 lf 1019,3 hPa 0,0 l/m 0 min 2 min 0 W/m 23,0 km/h (4 Bft) 100,00 %
04.02.2016 17:18 6,8 C 6,7 C 5,0 C 97 % 15 lf 1019,3 hPa 0,0 l/m 0 min 2 min 0 W/m 25,1 km/h (4 Bft) 93,48 %
04.02.2016 17:20 6,8 C 6,7 C 5,0 C 97 % 15 lf 1019,4 hPa 0,0 l/m 0 min 2 min 0 W/m 23,0 km/h (4 Bft) 100,00 %
04.02.2016 17:22 6,8 C 6,7 C 5,0 C 97 % 15 lf 1019,5 hPa 0,0 l/m 0 min 2 min 0 W/m 27,2 km/h (4 Bft) 97,87 %
04.02.2016 17:24 6,8 C 6,7 C 5,0 C 97 % 15 lf 1019,6 hPa 0,0 l/m 0 min 2 min 0 W/m 29,3 km/h (5 Bft) 95,74 %
04.02.2016 17:26 6,7 C 6,7 C 5,0 C 97 % 15 lf 1019,6 hPa 0,0 l/m 0 min 2 min 0 W/m 29,3 km/h (5 Bft) 100,00 %
04.02.2016 17:28 6,7 C 6,1 C 5,0 C 97 % 15 lf 1019,7 hPa 0,0 l/m 0 min 2 min 0 W/m 23,0 km/h (4 Bft) 95,74 %
04.02.2016 17:30 6,7 C 6,1 C 5,0 C 97 % 15 lf 1019,7 hPa 0,0 l/m 0 min 2 min 0 W/m 29,3 km/h (5 Bft) 97,83 %
04.02.2016 17:32 6,7 C 6,1 C 5,0 C 97 % 15 lf 1019,7 hPa 0,2 l/m 0 min 2 min 0 W/m 23,0 km/h (4 Bft) 100,00 %
04.02.2016 17:34 6,6 C 6,1 C 5,0 C 97 % 15 lf 1019,7 hPa 0,0 l/m 0 min 2 min 0 W/m 20,9 km/h (4 Bft) 97,87 %
04.02.2016 17:36 6,6 C 6,1 C 5,0 C 97 % 15 lf 1019,8 hPa 0,0 l/m 0 min 2 min 0 W/m 25,1 km/h (4 Bft) 100,00 %
04.02.2016 17:38 6,6 C 6,1 C 5,0 C 97 % 15 lf 1019,9 hPa 0,0 l/m 0 min 2 min 0 W/m 18,8 km/h (3 Bft) 95,74 %
04.02.2016 17:40 6,6 C 6,1 C 5,0 C 97 % 15 lf 1019,9 hPa 0,0 l/m 0 min 2 min 0 W/m 16,7 km/h (3 Bft) 95,65 %
04.02.2016 17:42 6,6 C 6,1 C 5,0 C 97 % 15 lf 1019,9 hPa 0,0 l/m 0 min 2 min 0 W/m 25,1 km/h (4 Bft) 97,87 %
04.02.2016 17:44 6,6 C 6,1 C 5,0 C 97 % 15 lf 1019,9 hPa 0,0 l/m 0 min 2 min 0 W/m 18,8 km/h (3 Bft) 91,49 %
04.02.2016 17:46 6,6 C 6,1 C 5,0 C 97 % 15 lf 1020,0 hPa 0,0 l/m 0 min 2 min 0 W/m 20,9 km/h (4 Bft) 95,74 %
04.02.2016 17:48 6,5 C 6,1 C 5,0 C 97 % 15 lf 1020,0 hPa 0,0 l/m 0 min 2 min 0 W/m 20,9 km/h (4 Bft) 95,74 %
04.02.2016 17:50 6,5 C 6,1 C 5,0 C 97 % 15 lf 1020,0 hPa 0,0 l/m 0 min 2 min 0 W/m 18,8 km/h (3 Bft) 95,74 %
04.02.2016 17:52 6,5 C 6,1 C 5,0 C 97 % 15 lf 1020,0 hPa 0,0 l/m 0 min 0 min 0 W/m 16,7 km/h (3 Bft) 93,62 %
04.02.2016 17:54 6,5 C 6,1 C 5,0 C 97 % 15 lf 1020,0 hPa 0,0 l/m 0 min 0 min 0 W/m 14,6 km/h (3 Bft) 97,83 %
04.02.2016 17:56 6,5 C 6,1 C 5,0 C 97 % 15 lf 1020,0 hPa 0,0 l/m 0 min 0 min 0 W/m 14,6 km/h (3 Bft) 95,74 %
04.02.2016 17:58 6,5 C 6,1 C 5,0 C 97 % 15 lf 1020,1 hPa 0,0 l/m 0 min 0 min 0 W/m 12,6 km/h (3 Bft) 97,87 %
04.02.2016 18:00 6,5 C 6,1 C 5,0 C 97 % 15 lf 1020,3 hPa 0,0 l/m 0 min 0 min 0 W/m 18,8 km/h (3 Bft) 95,74 %
04.02.2016 18:02 6,4 C 6,1 C 5,0 C 97 % 15 lf 1020,4 hPa 0,0 l/m 0 min 0 min 0 W/m 16,7 km/h (3 Bft) 97,87 %
04.02.2016 18:04 6,4 C 6,1 C 4,4 C 97 % 15 lf 1020,3 hPa 0,0 l/m 0 min 0 min 0 W/m 14,6 km/h (3 Bft) 93,48 %
04.02.2016 18:06 6,4 C 6,1 C 4,4 C 97 % 15 lf 1020,4 hPa 0,0 l/m 0 min 0 min 0 W/m 12,6 km/h (3 Bft) 97,87 %
04.02.2016 18:08 6,4 C 6,1 C 4,4 C 97 % 15 lf 1020,4 hPa 0,0 l/m 0 min 0 min 0 W/m 12,6 km/h (3 Bft) 95,74 %
04.02.2016 18:10 6,4 C 6,1 C 4,4 C 97 % 15 lf 1020,4 hPa 0,0 l/m 0 min 0 min 0 W/m 14,6 km/h (3 Bft) 93,62 %
04.02.2016 18:12 6,4 C 6,1 C 4,4 C 96 % 15 lf 1020,5 hPa 0,0 l/m 0 min 0 min 0 W/m 16,7 km/h (3 Bft) 97,87 %
04.02.2016 18:14 6,4 C 6,1 C 4,4 C 96 % 15 lf 1020,5 hPa 0,0 l/m 0 min 0 min 0 W/m 12,6 km/h (3 Bft) 95,74 %
04.02.2016 18:16 6,4 C 6,1 C 4,4 C 96 % 15 lf 1020,6 hPa 0,0 l/m 0 min 0 min 0 W/m 18,8 km/h (3 Bft) 97,83 %
04.02.2016 18:18 6,4 C 6,1 C 4,4 C 96 % 15 lf 1020,6 hPa 0,0 l/m 0 min 0 min 0 W/m 12,6 km/h (3 Bft) 95,74 %
04.02.2016 18:20 6,4 C 6,1 C 4,4 C 96 % 15 lf 1020,7 hPa 0,0 l/m 0 min 0 min 0 W/m 14,6 km/h (3 Bft) 97,87 %
04.02.2016 18:22 6,4 C 6,1 C 4,4 C 96 % 15 lf 1020,8 hPa 0,0 l/m 0 min 2 min 0 W/m 14,6 km/h (3 Bft) 100,00 %
04.02.2016 18:24 6,4 C 6,1 C 4,4 C 96 % 15 lf 1020,7 hPa 0,0 l/m 0 min 2 min 0 W/m 14,6 km/h (3 Bft) 100,00 %
04.02.2016 18:26 6,3 C 6,1 C 4,4 C 96 % 15 lf 1020,7 hPa 0,0 l/m 0 min 2 min 0 W/m 10,5 km/h (2 Bft) 95,74 %
04.02.2016 18:28 6,3 C 6,1 C 4,4 C 96 % 15 lf 1020,8 hPa 0,0 l/m 0 min 2 min 0 W/m 18,8 km/h (3 Bft) 97,83 %
04.02.2016 18:30 6,3 C 6,1 C 4,4 C 96 % 15 lf 1020,8 hPa 0,0 l/m 0 min 2 min 0 W/m 16,7 km/h (3 Bft) 97,87 %
04.02.2016 18:32 6,3 C 6,1 C 4,4 C 96 % 15 lf 1020,8 hPa 0,0 l/m 0 min 2 min 0 W/m 18,8 km/h (3 Bft) 97,87 %
04.02.2016 18:34 6,2 C 5,6 C 4,4 C 96 % 15 lf 1020,9 hPa 0,0 l/m 0 min 2 min 0 W/m 25,1 km/h (4 Bft) 95,74 %
04.02.2016 18:36 6,2 C 5,6 C 4,4 C 96 % 15 lf 1020,9 hPa 0,0 l/m 0 min 2 min 0 W/m 18,8 km/h (3 Bft) 95,74 %
04.02.2016 18:38 6,2 C 5,6 C 4,4 C 96 % 15 lf 1020,9 hPa 0,0 l/m 0 min 2 min 0 W/m 14,6 km/h (3 Bft) 93,62 %
04.02.2016 18:40 6,1 C 5,6 C 3,9 C 96 % 15 lf 1021,0 hPa 0,0 l/m 0 min 2 min 0 W/m 18,8 km/h (3 Bft) 93,48 %
04.02.2016 18:42 6,1 C 5,6 C 3,9 C 96 % 15 lf 1021,1 hPa 0,0 l/m 0 min 0 min 0 W/m 16,7 km/h (3 Bft) 97,87 %
04.02.2016 18:44 6,0 C 5,6 C 3,9 C 96 % 15 lf 1021,2 hPa 0,0 l/m 0 min 0 min 0 W/m 18,8 km/h (3 Bft) 97,87 %
04.02.2016 18:46 5,9 C 5,6 C 3,9 C 96 % 15 lf 1021,3 hPa 0,0 l/m 0 min 0 min 0 W/m 20,9 km/h (4 Bft) 100,00 %
04.02.2016 18:48 5,9 C 5,6 C 3,9 C 96 % 15 lf 1021,3 hPa 0,0 l/m 0 min 0 min 0 W/m 20,9 km/h (4 Bft) 93,62 %
04.02.2016 18:50 5,9 C 5,6 C 3,9 C 96 % 15 lf 1021,5 hPa 0,0 l/m 0 min 0 min 0 W/m 18,8 km/h (3 Bft) 97,87 %
04.02.2016 18:52 5,8 C 5,6 C 3,9 C 96 % 15 lf 1021,4 hPa 0,0 l/m 0 min 0 min 0 W/m 12,6 km/h (3 Bft) 97,83 %
04.02.2016 18:54 5,8 C 5,6 C 3,9 C 96 % 15 lf 1021,4 hPa 0,0 l/m 0 min 0 min 0 W/m 14,6 km/h (3 Bft) 97,87 %
04.02.2016 18:56 5,7 C 5,0 C 3,9 C 96 % 15 lf 1021,4 hPa 0,0 l/m 0 min 0 min 0 W/m 12,6 km/h (3 Bft) 95,74 %
04.02.2016 18:58 5,7 C 5,0 C 3,9 C 96 % 15 lf 1021,5 hPa 0,0 l/m 0 min 0 min 0 W/m 10,5 km/h (2 Bft) 97,87 %
04.02.2016 19:00 5,6 C 5,0 C 3,3 C 96 % 15 lf 1021,6 hPa 0,0 l/m 0 min 0 min 0 W/m 14,6 km/h (3 Bft) 100,00 %
04.02.2016 19:02 5,6 C 5,0 C 3,3 C 95 % 15 lf 1021,6 hPa 0,0 l/m 0 min 0 min 0 W/m 14,6 km/h (3 Bft) 100,00 %
04.02.2016 19:04 5,5 C 5,0 C 3,3 C 95 % 15 lf 1021,6 hPa 0,0 l/m 0 min 0 min 0 W/m 10,5 km/h (2 Bft) 97,87 %
04.02.2016 19:06 5,4 C 4,4 C 3,3 C 95 % 15 lf 1021,6 hPa 0,0 l/m 0 min 0 min 0 W/m 12,6 km/h (3 Bft) 97,87 %
04.02.2016 19:08 5,4 C 4,4 C 3,3 C 95 % 15 lf 1021,7 hPa 0,0 l/m 0 min 0 min 0 W/m 8,4 km/h (2 Bft) 100,00 %
04.02.2016 19:10 5,4 C 4,4 C 3,3 C 95 % 15 lf 1021,7 hPa 0,0 l/m 0 min 0 min 0 W/m 8,4 km/h (2 Bft) 97,87 %
04.02.2016 19:12 5,3 C 4,4 C 3,3 C 95 % 15 lf 1021,8 hPa 0,0 l/m 0 min 0 min 0 W/m 10,5 km/h (2 Bft) 97,87 %
04.02.2016 19:14 5,3 C 4,4 C 3,3 C 95 % 15 lf 1021,8 hPa 0,0 l/m 0 min 0 min 0 W/m 10,5 km/h (2 Bft) 97,83 %
04.02.2016 19:16 5,3 C 4,4 C 3,3 C 95 % 15 lf 1021,8 hPa 0,0 l/m 0 min 0 min 0 W/m 8,4 km/h (2 Bft) 97,87 %
04.02.2016 19:18 5,2 C 4,4 C 2,8 C 95 % 15 lf 1021,9 hPa 0,0 l/m 0 min 0 min 0 W/m 10,5 km/h (2 Bft) 97,87 %
04.02.2016 19:20 5,2 C 4,4 C 2,8 C 95 % 15 lf 1022,0 hPa 0,0 l/m 0 min 0 min 0 W/m 8,4 km/h (2 Bft) 97,87 %
04.02.2016 19:22 5,1 C 4,4 C 2,8 C 95 % 15 lf 1022,0 hPa 0,0 l/m 0 min 0 min 0 W/m 6,3 km/h (2 Bft) 95,74 %
04.02.2016 19:24 5,1 C 4,4 C 2,8 C 95 % 15 lf 1022,1 hPa 0,0 l/m 0 min 0 min 0 W/m 6,3 km/h (2 Bft) 93,62 %
04.02.2016 19:26 5,0 C 4,4 C 2,8 C 95 % 15 lf 1022,1 hPa 0,0 l/m 0 min 0 min 0 W/m 4,2 km/h (1 Bft) 95,65 %
04.02.2016 19:28 5,0 C 3,9 C 2,8 C 95 % 15 lf 1022,2 hPa 0,0 l/m 0 min 0 min 0 W/m 6,3 km/h (2 Bft) 95,74 %
04.02.2016 19:30 4,9 C 3,9 C 2,8 C 95 % 15 lf 1022,2 hPa 0,0 l/m 0 min 0 min 0 W/m 6,3 km/h (2 Bft) 95,74 %
04.02.2016 19:32 4,9 C 3,9 C 2,8 C 95 % 15 lf 1022,2 hPa 0,0 l/m 0 min 0 min 0 W/m 4,2 km/h (1 Bft) 95,74 %
04.02.2016 19:34 4,9 C 3,9 C 2,2 C 94 % 15 lf 1022,3 hPa 0,0 l/m 0 min 0 min 0 W/m 4,2 km/h (1 Bft) 95,74 %
04.02.2016 19:36 4,9 C 3,3 C 2,2 C 94 % 15 lf 1022,4 hPa 0,0 l/m 0 min 0 min 0 W/m 4,2 km/h (1 Bft) 97,87 %
04.02.2016 19:38 4,8 C 3,3 C 2,2 C 94 % 15 lf 1022,5 hPa 0,0 l/m 0 min 0 min 0 W/m 4,2 km/h (1 Bft) 97,83 %
04.02.2016 19:40 4,8 C 3,3 C 2,2 C 94 % 15 lf 1022,4 hPa 0,0 l/m 0 min 0 min 0 W/m 2,1 km/h (1 Bft) 93,62 %
04.02.2016 19:42 4,8 C 3,3 C 1,7 C 94 % 15 lf 1022,5 hPa 0,0 l/m 0 min 0 min 0 W/m 2,1 km/h (1 Bft) 97,87 %
04.02.2016 19:44 4,7 C 3,3 C 1,7 C 94 % 15 lf 1022,5 hPa 0,0 l/m 0 min 0 min 0 W/m 2,1 km/h (1 Bft) 91,49 %
04.02.2016 19:46 4,7 C 2,8 C 1,7 C 94 % 15 lf 1022,5 hPa 0,0 l/m 0 min 0 min 0 W/m 0,0 km/h (0 Bft) 95,74 %
04.02.2016 19:48 4,7 C 2,8 C 1,7 C 94 % 15 lf 1022,5 hPa 0,0 l/m 0 min 0 min 0 W/m 0,0 km/h (0 Bft) 97,87 %
04.02.2016 19:50 4,6 C 2,8 C 1,7 C 94 % 15 lf 1022,6 hPa 0,0 l/m 0 min 0 min 0 W/m 4,2 km/h (1 Bft) 97,83 %
04.02.2016 19:52 4,6 C 2,8 C 1,7 C 94 % 15 lf 1022,6 hPa 0,0 l/m 0 min 0 min 0 W/m 2,1 km/h (1 Bft) 95,74 %
04.02.2016 19:54 4,4 C 2,8 C 1,1 C 94 % 15 lf 1022,7 hPa 0,0 l/m 0 min 0 min 0 W/m 4,2 km/h (1 Bft) 95,74 %
04.02.2016 19:56 4,4 C 2,8 C 1,7 C 94 % 15 lf 1022,7 hPa 0,0 l/m 0 min 0 min 0 W/m 6,3 km/h (2 Bft) 97,87 %
04.02.2016 19:58 4,4 C 2,8 C 1,1 C 94 % 15 lf 1022,7 hPa 0,0 l/m 0 min 0 min 0 W/m 4,2 km/h (1 Bft) 97,87 %
04.02.2016 20:00 4,3 C 2,8 C 1,1 C 94 % 15 lf 1022,8 hPa 0,0 l/m 0 min 0 min 0 W/m 2,1 km/h (1 Bft) 95,74 %
04.02.2016 20:02 4,3 C 2,8 C 1,1 C 94 % 15 lf 1022,8 hPa 0,0 l/m 0 min 0 min 0 W/m 4,2 km/h (1 Bft) 95,65 %
04.02.2016 20:04 4,2 C 2,8 C 1,1 C 94 % 15 lf 1022,8 hPa 0,0 l/m 0 min 0 min 0 W/m 4,2 km/h (1 Bft) 95,74 %
04.02.2016 20:06 4,2 C 2,8 C 1,1 C 93 % 15 lf 1022,8 hPa 0,0 l/m 0 min 0 min 0 W/m 4,2 km/h (1 Bft) 100,00 %
04.02.2016 20:08 4,1 C 2,2 C 1,1 C 93 % 15 lf 1022,8 hPa 0,0 l/m 0 min 0 min 0 W/m 4,2 km/h (1 Bft) 93,62 %
04.02.2016 20:10 4,1 C 2,2 C 1,1 C 93 % 15 lf 1022,8 hPa 0,0 l/m 0 min 0 min 0 W/m 4,2 km/h (1 Bft) 95,74 %
04.02.2016 20:12 4,1 C 2,2 C 1,1 C 93 % 15 lf 1022,8 hPa 0,0 l/m 0 min 0 min 0 W/m 4,2 km/h (1 Bft) 95,65 %
04.02.2016 20:14 4,0 C 2,2 C 1,1 C 93 % 15 lf 1022,8 hPa 0,0 l/m 0 min 0 min 0 W/m 4,2 km/h (1 Bft) 97,87 %
04.02.2016 20:16 3,9 C 2,2 C 1,1 C 93 % 15 lf 1022,9 hPa 0,0 l/m 0 min 0 min 0 W/m 4,2 km/h (1 Bft) 93,62 %
04.02.2016 20:18 3,9 C 2,2 C 1,1 C 93 % 15 lf 1023,0 hPa 0,0 l/m 0 min 0 min 0 W/m 4,2 km/h (1 Bft) 93,62 %
04.02.2016 20:20 3,9 C 2,2 C 1,1 C 93 % 15 lf 1023,0 hPa 0,0 l/m 0 min 0 min 0 W/m 4,2 km/h (1 Bft) 87,23 %
04.02.2016 20:22 3,8 C 2,2 C 1,1 C 93 % 15 lf 1023,1 hPa 0,0 l/m 0 min 0 min 0 W/m 6,3 km/h (2 Bft) 95,74 %
04.02.2016 20:24 3,8 C 2,2 C 1,1 C 93 % 15 lf 1023,2 hPa 0,0 l/m 0 min 0 min 0 W/m 4,2 km/h (1 Bft) 91,30 %
04.02.2016 20:26 3,7 C 2,2 C 1,1 C 93 % 15 lf 1023,2 hPa 0,0 l/m 0 min 0 min 0 W/m 6,3 km/h (2 Bft) 95,74 %
04.02.2016 20:28 3,7 C 2,8 C 1,7 C 93 % 15 lf 1023,2 hPa 0,0 l/m 0 min 0 min 0 W/m 4,2 km/h (1 Bft) 91,49 %
04.02.2016 20:30 3,7 C 2,8 C 1,7 C 93 % 15 lf 1023,3 hPa 0,0 l/m 0 min 0 min 0 W/m 6,3 km/h (2 Bft) 89,36 %
04.02.2016 20:32 3,7 C 2,8 C 1,7 C 93 % 15 lf 1023,3 hPa 0,0 l/m 0 min 0 min 0 W/m 6,3 km/h (2 Bft) 91,49 %
04.02.2016 20:34 3,6 C 3,3 C 2,2 C 93 % 15 lf 1023,3 hPa 0,0 l/m 0 min 0 min 0 W/m 6,3 km/h (2 Bft) 93,62 %
04.02.2016 20:36 3,6 C 3,3 C 2,2 C 93 % 15 lf 1023,3 hPa 0,0 l/m 0 min 0 min 0 W/m 6,3 km/h (2 Bft) 93,48 %
04.02.2016 20:38 3,6 C 3,3 C 2,2 C 93 % 15 lf 1023,4 hPa 0,0 l/m 0 min 0 min 0 W/m 10,5 km/h (2 Bft) 93,62 %
04.02.2016 20:40 3,6 C 3,3 C 2,2 C 93 % 15 lf 1023,4 hPa 0,0 l/m 0 min 0 min 0 W/m 8,4 km/h (2 Bft) 93,62 %
04.02.2016 20:42 3,6 C 3,3 C 2,2 C 94 % 15 lf 1023,5 hPa 0,0 l/m 0 min 0 min 0 W/m 10,5 km/h (2 Bft) 91,49 %
04.02.2016 20:44 3,6 C 3,3 C 2,2 C 94 % 15 lf 1023,5 hPa 0,0 l/m 0 min 0 min 0 W/m 10,5 km/h (2 Bft) 93,62 %
04.02.2016 20:46 3,7 C 3,9 C 2,2 C 94 % 15 lf 1023,5 hPa 0,0 l/m 0 min 0 min 0 W/m 10,5 km/h (2 Bft) 95,74 %
04.02.2016 20:48 3,7 C 3,9 C 2,2 C 94 % 15 lf 1023,5 hPa 0,0 l/m 0 min 0 min 0 W/m 8,4 km/h (2 Bft) 95,65 %
04.02.2016 20:50 3,7 C 3,9 C 2,2 C 94 % 15 lf 1023,5 hPa 0,0 l/m 0 min 0 min 0 W/m 8,4 km/h (2 Bft) 93,62 %
04.02.2016 20:52 3,7 C 3,9 C 2,2 C 94 % 15 lf 1023,6 hPa 0,0 l/m 0 min 0 min 0 W/m 8,4 km/h (2 Bft) 97,87 %
04.02.2016 20:54 3,7 C 3,9 C 2,8 C 94 % 15 lf 1023,6 hPa 0,0 l/m 0 min 0 min 0 W/m 8,4 km/h (2 Bft) 95,74 %
04.02.2016 20:56 3,7 C 3,9 C 2,8 C 94 % 15 lf 1023,6 hPa 0,0 l/m 0 min 0 min 0 W/m 8,4 km/h (2 Bft) 100,00 %
04.02.2016 20:58 3,8 C 3,9 C 2,8 C 94 % 15 lf 1023,6 hPa 0,0 l/m 0 min 0 min 0 W/m 8,4 km/h (2 Bft) 95,74 %
04.02.2016 21:00 3,8 C 3,9 C 2,8 C 94 % 15 lf 1023,6 hPa 0,0 l/m 0 min 0 min 0 W/m 6,3 km/h (2 Bft) 97,83 %
04.02.2016 21:02 3,8 C 3,9 C 2,8 C 94 % 15 lf 1023,7 hPa 0,0 l/m 0 min 0 min 0 W/m 6,3 km/h (2 Bft) 93,62 %
04.02.2016 21:04 3,8 C 3,9 C 2,2 C 94 % 15 lf 1023,8 hPa 0,0 l/m 0 min 0 min 0 W/m 6,3 km/h (2 Bft) 97,87 %
04.02.2016 21:06 3,8 C 3,9 C 2,2 C 94 % 15 lf 1023,8 hPa 0,0 l/m 0 min 0 min 0 W/m 6,3 km/h (2 Bft) 97,87 %
04.02.2016 21:08 3,8 C 3,9 C 2,2 C 94 % 15 lf 1023,9 hPa 0,0 l/m 0 min 0 min 0 W/m 6,3 km/h (2 Bft) 97,87 %
04.02.2016 21:10 3,8 C 3,9 C 2,2 C 95 % 15 lf 1023,9 hPa 0,0 l/m 0 min 0 min 0 W/m 6,3 km/h (2 Bft) 97,87 %
04.02.2016 21:12 3,8 C 3,9 C 2,2 C 95 % 15 lf 1024,0 hPa 0,0 l/m 0 min 0 min 0 W/m 6,3 km/h (2 Bft) 97,83 %
04.02.2016 21:14 3,8 C 3,9 C 2,2 C 94 % 15 lf 1024,0 hPa 0,0 l/m 0 min 0 min 0 W/m 8,4 km/h (2 Bft) 97,87 %
04.02.2016 21:16 3,8 C 3,9 C 2,2 C 94 % 15 lf 1024,1 hPa 0,0 l/m 0 min 0 min 0 W/m 6,3 km/h (2 Bft) 97,87 %
04.02.2016 21:18 3,8 C 3,9 C 2,2 C 94 % 15 lf 1024,0 hPa 0,0 l/m 0 min 0 min 0 W/m 6,3 km/h (2 Bft) 97,87 %
04.02.2016 21:20 3,9 C 3,9 C 2,2 C 94 % 15 lf 1024,0 hPa 0,0 l/m 0 min 0 min 0 W/m 8,4 km/h (2 Bft) 97,87 %
04.02.2016 21:22 3,9 C 3,9 C 2,2 C 94 % 15 lf 1024,1 hPa 0,0 l/m 0 min 0 min 0 W/m 6,3 km/h (2 Bft) 95,74 %
04.02.2016 21:24 3,8 C 3,9 C 2,2 C 95 % 15 lf 1024,1 hPa 0,0 l/m 0 min 0 min 0 W/m 6,3 km/h (2 Bft) 97,83 %
04.02.2016 21:26 3,9 C 3,9 C 2,2 C 95 % 15 lf 1024,1 hPa 0,0 l/m 0 min 0 min 0 W/m 4,2 km/h (1 Bft) 97,87 %
04.02.2016 21:28 3,9 C 3,9 C 2,8 C 95 % 15 lf 1024,1 hPa 0,0 l/m 0 min 0 min 0 W/m 0,0 km/h (0 Bft) 97,87 %
04.02.2016 21:30 3,9 C 3,9 C 2,2 C 95 % 15 lf 1024,1 hPa 0,0 l/m 0 min 0 min 0 W/m 0,0 km/h (0 Bft) 95,74 %
04.02.2016 21:32 3,9 C 3,9 C 2,2 C 95 % 15 lf 1024,1 hPa 0,0 l/m 0 min 0 min 0 W/m 0,0 km/h (0 Bft) 95,74 %
04.02.2016 21:34 3,9 C 3,9 C 2,2 C 95 % 15 lf 1024,1 hPa 0,0 l/m 0 min 0 min 0 W/m 0,0 km/h (0 Bft) 93,48 %
04.02.2016 21:36 3,9 C 3,9 C 2,8 C 95 % 15 lf 1024,1 hPa 0,0 l/m 0 min 0 min 0 W/m 0,0 km/h (0 Bft) 97,87 %
04.02.2016 21:38 3,9 C 3,9 C 2,8 C 95 % 15 lf 1024,1 hPa 0,0 l/m 0 min 0 min 0 W/m 0,0 km/h (0 Bft) 100,00 %
04.02.2016 21:40 3,9 C 3,9 C 2,8 C 95 % 15 lf 1024,2 hPa 0,0 l/m 0 min 0 min 0 W/m 0,0 km/h (0 Bft) 97,87 %
04.02.2016 21:42 3,9 C 3,9 C 2,2 C 95 % 15 lf 1024,3 hPa 0,0 l/m 0 min 0 min 0 W/m 0,0 km/h (0 Bft) 97,87 %
04.02.2016 21:44 3,9 C 3,9 C 2,2 C 95 % 15 lf 1024,2 hPa 0,0 l/m 0 min 0 min 0 W/m 0,0 km/h (0 Bft) 93,62 %
04.02.2016 21:46 3,9 C 3,9 C 2,2 C 95 % 15 lf 1024,3 hPa 0,0 l/m 0 min 0 min 0 W/m 0,0 km/h (0 Bft) 95,65 %
04.02.2016 21:48 3,9 C 3,9 C 2,2 C 95 % 15 lf 1024,3 hPa 0,0 l/m 0 min 0 min 0 W/m 0,0 km/h (0 Bft) 100,00 %
04.02.2016 21:50 3,9 C 3,9 C 2,2 C 95 % 15 lf 1024,3 hPa 0,0 l/m 0 min 0 min 0 W/m 0,0 km/h (0 Bft) 97,87 %
04.02.2016 21:52 3,9 C 3,9 C 2,2 C 95 % 15 lf 1024,3 hPa 0,0 l/m 0 min 0 min 0 W/m 0,0 km/h (0 Bft) 95,74 %
04.02.2016 21:54 3,9 C 3,3 C 2,2 C 95 % 15 lf 1024,4 hPa 0,0 l/m 0 min 0 min 0 W/m 0,0 km/h (0 Bft) 97,87 %
04.02.2016 21:56 3,9 C 3,3 C 2,2 C 95 % 15 lf 1024,3 hPa 0,0 l/m 0 min 0 min 0 W/m 0,0 km/h (0 Bft) 95,74 %
04.02.2016 21:58 3,9 C 3,9 C 2,2 C 95 % 15 lf 1024,5 hPa 0,0 l/m 0 min 0 min 0 W/m 0,0 km/h (0 Bft) 97,83 %
04.02.2016 22:00 3,8 C 3,9 C 2,2 C 95 % 15 lf 1024,5 hPa 0,0 l/m 0 min 0 min 0 W/m 0,0 km/h (0 Bft) 95,74 %
04.02.2016 22:02 3,8 C 3,9 C 2,2 C 95 % 15 lf 1024,5 hPa 0,0 l/m 0 min 0 min 0 W/m 0,0 km/h (0 Bft) 93,62 %
04.02.2016 22:04 3,8 C 3,9 C 2,2 C 95 % 15 lf 1024,6 hPa 0,0 l/m 0 min 0 min 0 W/m 6,3 km/h (2 Bft) 95,74 %
04.02.2016 22:06 3,8 C 3,9 C 2,8 C 95 % 15 lf 1024,6 hPa 0,0 l/m 0 min 0 min 0 W/m 4,2 km/h (1 Bft) 97,87 %
04.02.2016 22:08 3,8 C 3,9 C 2,8 C 95 % 15 lf 1024,6 hPa 0,0 l/m 0 min 0 min 0 W/m 4,2 km/h (1 Bft) 95,74 %
04.02.2016 22:10 3,8 C 3,9 C 2,8 C 95 % 15 lf 1024,6 hPa 0,0 l/m 0 min 0 min 0 W/m 4,2 km/h (1 Bft) 97,83 %
04.02.2016 22:12 3,8 C 3,9 C 2,8 C 95 % 15 lf 1024,6 hPa 0,0 l/m 0 min 0 min 0 W/m 4,2 km/h (1 Bft) 95,74 %
04.02.2016 22:14 3,8 C 3,9 C 2,8 C 95 % 15 lf 1024,6 hPa 0,0 l/m 0 min 0 min 0 W/m 4,2 km/h (1 Bft) 89,36 %
04.02.2016 22:16 3,8 C 3,9 C 2,8 C 95 % 15 lf 1024,7 hPa 0,0 l/m 0 min 0 min 0 W/m 4,2 km/h (1 Bft) 95,74 %
04.02.2016 22:18 3,8 C 3,9 C 2,8 C 95 % 15 lf 1024,7 hPa 0,0 l/m 0 min 0 min 0 W/m 4,2 km/h (1 Bft) 95,74 %
04.02.2016 22:20 3,8 C 3,9 C 2,8 C 95 % 15 lf 1024,7 hPa 0,0 l/m 0 min 0 min 0 W/m 4,2 km/h (1 Bft) 95,65 %
04.02.2016 22:22 3,8 C 3,9 C 2,8 C 95 % 15 lf 1024,7 hPa 0,0 l/m 0 min 0 min 0 W/m 4,2 km/h (1 Bft) 95,74 %
04.02.2016 22:24 3,8 C 3,9 C 2,8 C 95 % 15 lf 1024,7 hPa 0,0 l/m 0 min 0 min 0 W/m 4,2 km/h (1 Bft) 93,62 %
04.02.2016 22:26 3,8 C 3,9 C 2,8 C 95 % 15 lf 1024,7 hPa 0,0 l/m 0 min 0 min 0 W/m 4,2 km/h (1 Bft) 93,62 %
04.02.2016 22:28 3,8 C 3,9 C 2,8 C 95 % 15 lf 1024,7 hPa 0,0 l/m 0 min 0 min 0 W/m 4,2 km/h (1 Bft) 93,62 %
04.02.2016 22:30 3,8 C 3,9 C 2,8 C 95 % 15 lf 1024,6 hPa 0,0 l/m 0 min 0 min 0 W/m 4,2 km/h (1 Bft) 95,74 %
04.02.2016 22:32 3,8 C 3,9 C 2,8 C 95 % 15 lf 1024,7 hPa 0,0 l/m 0 min 0 min 0 W/m 4,2 km/h (1 Bft) 97,83 %
04.02.2016 22:34 3,8 C 3,3 C 2,8 C 95 % 15 lf 1024,6 hPa 0,0 l/m 0 min 0 min 0 W/m 2,1 km/h (1 Bft) 95,74 %
04.02.2016 22:36 3,8 C 3,3 C 2,2 C 95 % 15 lf 1024,7 hPa 0,0 l/m 0 min 0 min 0 W/m 2,1 km/h (1 Bft) 97,87 %
04.02.2016 22:38 3,8 C 3,3 C 2,2 C 95 % 15 lf 1024,7 hPa 0,0 l/m 0 min 0 min 0 W/m 4,2 km/h (1 Bft) 93,62 %
04.02.2016 22:40 3,8 C 3,3 C 2,2 C 95 % 15 lf 1024,8 hPa 0,0 l/m 0 min 0 min 0 W/m 4,2 km/h (1 Bft) 95,74 %
04.02.2016 22:42 3,8 C 3,3 C 2,2 C 95 % 15 lf 1024,8 hPa 0,0 l/m 0 min 0 min 0 W/m 2,1 km/h (1 Bft) 93,62 %
04.02.2016 22:44 3,8 C 3,3 C 2,2 C 95 % 15 lf 1024,8 hPa 0,0 l/m 0 min 0 min 0 W/m 4,2 km/h (1 Bft) 93,48 %
04.02.2016 22:46 3,8 C 3,3 C 2,2 C 95 % 15 lf 1024,7 hPa 0,0 l/m 0 min 0 min 0 W/m 2,1 km/h (1 Bft) 93,62 %
04.02.2016 22:48 3,8 C 3,3 C 2,2 C 95 % 15 lf 1024,8 hPa 0,0 l/m 0 min 0 min 0 W/m 0,0 km/h (0 Bft) 93,62 %
04.02.2016 22:50 3,8 C 3,3 C 2,2 C 95 % 15 lf 1024,8 hPa 0,0 l/m 0 min 0 min 0 W/m 0,0 km/h (0 Bft) 95,74 %
04.02.2016 22:52 3,8 C 3,3 C 2,2 C 95 % 15 lf 1024,8 hPa 0,0 l/m 0 min 0 min 0 W/m 0,0 km/h (0 Bft) 89,36 %
04.02.2016 22:54 3,8 C 3,9 C 2,2 C 95 % 15 lf 1024,8 hPa 0,0 l/m 0 min 0 min 0 W/m 0,0 km/h (0 Bft) 93,62 %
04.02.2016 22:56 3,8 C 3,9 C 2,2 C 95 % 15 lf 1024,8 hPa 0,0 l/m 0 min 0 min 0 W/m 0,0 km/h (0 Bft) 91,30 %
04.02.2016 22:58 3,8 C 3,9 C 2,2 C 95 % 15 lf 1024,9 hPa 0,0 l/m 0 min 0 min 0 W/m 0,0 km/h (0 Bft) 95,74 %
04.02.2016 23:00 3,8 C 3,9 C 2,2 C 95 % 15 lf 1024,9 hPa 0,0 l/m 0 min 0 min 0 W/m 0,0 km/h (0 Bft) 93,62 %
04.02.2016 23:02 3,8 C 3,9 C 2,2 C 95 % 15 lf 1024,9 hPa 0,0 l/m 0 min 0 min 0 W/m 0,0 km/h (0 Bft) 95,74 %
04.02.2016 23:04 3,8 C 3,9 C 2,2 C 95 % 15 lf 1024,9 hPa 0,0 l/m 0 min 0 min 0 W/m 0,0 km/h (0 Bft) 93,62 %
04.02.2016 23:06 3,8 C 3,9 C 2,2 C 95 % 15 lf 1024,9 hPa 0,0 l/m 0 min 0 min 0 W/m 0,0 km/h (0 Bft) 93,62 %
04.02.2016 23:08 3,7 C 3,9 C 2,2 C 95 % 15 lf 1025,0 hPa 0,0 l/m 0 min 0 min 0 W/m 0,0 km/h (0 Bft) 95,65 %
04.02.2016 23:10 3,8 C 3,9 C 2,8 C 95 % 15 lf 1024,9 hPa 0,0 l/m 0 min 0 min 0 W/m 0,0 km/h (0 Bft) 93,62 %
04.02.2016 23:12 3,8 C 3,9 C 2,8 C 95 % 15 lf 1024,9 hPa 0,0 l/m 0 min 0 min 0 W/m 0,0 km/h (0 Bft) 91,49 %
04.02.2016 23:14 3,7 C 3,9 C 2,8 C 95 % 15 lf 1024,9 hPa 0,0 l/m 0 min 0 min 0 W/m 0,0 km/h (0 Bft) 97,87 %
04.02.2016 23:16 3,7 C 3,9 C 2,8 C 95 % 15 lf 1024,9 hPa 0,0 l/m 0 min 0 min 0 W/m 0,0 km/h (0 Bft) 95,74 %
04.02.2016 23:18 3,7 C 3,9 C 2,8 C 95 % 15 lf 1025,0 hPa 0,0 l/m 0 min 0 min 0 W/m 0,0 km/h (0 Bft) 97,87 %
04.02.2016 23:20 3,7 C 3,9 C 2,8 C 95 % 15 lf 1025,0 hPa 0,0 l/m 0 min 0 min 0 W/m 0,0 km/h (0 Bft) 95,65 %
04.02.2016 23:22 3,7 C 3,9 C 2,8 C 95 % 15 lf 1025,0 hPa 0,0 l/m 0 min 0 min 0 W/m 0,0 km/h (0 Bft) 95,74 %
04.02.2016 23:24 3,7 C 3,9 C 2,8 C 95 % 15 lf 1025,1 hPa 0,0 l/m 0 min 0 min 0 W/m 0,0 km/h (0 Bft) 100,00 %
04.02.2016 23:26 3,7 C 3,9 C 2,8 C 95 % 15 lf 1025,1 hPa 0,0 l/m 0 min 0 min 0 W/m 0,0 km/h (0 Bft) 95,74 %
04.02.2016 23:28 3,7 C 3,9 C 2,8 C 95 % 15 lf 1025,1 hPa 0,0 l/m 0 min 0 min 0 W/m 0,0 km/h (0 Bft) 97,87 %
04.02.2016 23:30 3,7 C 3,9 C 2,8 C 95 % 15 lf 1025,1 hPa 0,0 l/m 0 min 0 min 0 W/m 0,0 km/h (0 Bft) 93,48 %
04.02.2016 23:32 3,7 C 3,9 C 2,8 C 95 % 15 lf 1025,2 hPa 0,0 l/m 0 min 0 min 0 W/m 0,0 km/h (0 Bft) 100,00 %
04.02.2016 23:34 3,7 C 3,9 C 2,8 C 95 % 15 lf 1025,2 hPa 0,0 l/m 0 min 0 min 0 W/m 4,2 km/h (1 Bft) 95,74 %
04.02.2016 23:36 3,7 C 3,9 C 2,8 C 95 % 15 lf 1025,2 hPa 0,0 l/m 0 min 0 min 0 W/m 4,2 km/h (1 Bft) 100,00 %
04.02.2016 23:38 3,7 C 3,9 C 2,8 C 95 % 15 lf 1025,3 hPa 0,0 l/m 0 min 0 min 0 W/m 4,2 km/h (1 Bft) 100,00 %
04.02.2016 23:40 3,7 C 3,9 C 2,8 C 95 % 15 lf 1025,3 hPa 0,0 l/m 0 min 0 min 0 W/m 4,2 km/h (1 Bft) 97,87 %
04.02.2016 23:42 3,7 C 3,9 C 2,8 C 95 % 15 lf 1025,3 hPa 0,0 l/m 0 min 0 min 0 W/m 4,2 km/h (1 Bft) 100,00 %
04.02.2016 23:44 3,7 C 3,9 C 2,8 C 95 % 15 lf 1025,3 hPa 0,0 l/m 0 min 0 min 0 W/m 2,1 km/h (1 Bft) 95,74 %
04.02.2016 23:46 3,8 C 3,9 C 2,8 C 95 % 15 lf 1025,3 hPa 0,0 l/m 0 min 0 min 0 W/m 6,3 km/h (2 Bft) 97,87 %
04.02.2016 23:48 3,7 C 3,9 C 2,8 C 95 % 15 lf 1025,3 hPa 0,0 l/m 0 min 0 min 0 W/m 4,2 km/h (1 Bft) 97,87 %
04.02.2016 23:50 3,8 C 3,9 C 2,8 C 95 % 15 lf 1025,4 hPa 0,0 l/m 0 min 0 min 0 W/m 4,2 km/h (1 Bft) 97,87 %
04.02.2016 23:52 3,8 C 3,9 C 2,8 C 95 % 15 lf 1025,4 hPa 0,0 l/m 0 min 0 min 0 W/m 6,3 km/h (2 Bft) 95,74 %
04.02.2016 23:54 3,8 C 3,9 C 2,8 C 95 % 15 lf 1025,4 hPa 0,0 l/m 0 min 0 min 0 W/m 6,3 km/h (2 Bft) 97,83 %
04.02.2016 23:56 3,8 C 3,9 C 2,8 C 95 % 15 lf 1025,4 hPa 0,0 l/m 0 min 0 min 0 W/m 4,2 km/h (1 Bft) 97,87 %
04.02.2016 23:58 3,8 C 3,9 C 2,8 C 95 % 15 lf 1025,4 hPa 0,0 l/m 0 min 0 min 0 W/m 2,1 km/h (1 Bft) 95,74 %
_ Min-Zeit 05:08 20:08 19:54 09:10 00:00 13:52 - - - - 19:46 10:08
Minimum _ 2,8 C 2,2 C 1,1 C 91 % 0 lf 1016,8 hPa - - - - 0,0 km/h (0 Bft) 84,78 %
_ Max-Zeit 16:04 15:46 15:42 15:06 02:56 23:50 09:40 15:48 02:50 14:02 09:56 00:56
Maximum _ 6,8 C 7,2 C 5,6 C 98 % 15 lf 1025,4 hPa 0,2 l/m 2 min 2 min 113 W/m 43,9 km/h
W (6 Bft)
100,00 %
Durchschnitt _ 4,2 C 4,2 C 2,9 C 94 % 10 lf 1021,8 hPa #3,4 l/m #2 min. #5:54 h 38 W/m 17,0 km/h (3 Bft) 96,02 %
© 2016 W. Hausmann